GFSGL_prec_radar_051.txt.gz
Reflectivity
-20 -20 28 23 19 18 24 23 9 19 3 6 18 -0 -20 4 32 -0 -3 19 -16 -20 -20 -20 -20 -20 -20 -20 -20 -20 -20 -18 1 -20 -20 -20 -20 -20 -20 -20 -20 -20 -20
-20 -20 4 18 27 24 23 17 4 -18 -20 -20 4 26 -13 11 -20 22 24 -20 -20 -20 -20 -20 -20 -20 -20 -20 -20 -20 -20 -20 -20 -20 -20 -20 -20 -20 -20 -20 -20 -20 -20
-20 -20 -13 23 23 19 21 6 4 -17 -15 -11 14 -8 16 26 20 -19 -20 -20 -20 -20 -20 -20 -20 -20 -20 -20 -20 -20 -20 -20 -20 -20 -20 -20 -20 -20 -20 -20 -20 -20 -20
-20 -20 -20 24 17 16 16 -9 13 -19 -20 -20 -15 4 3 32 -16 -20 -20 -20 -20 -20 -20 -20 -20 -20 -20 -20 -20 -20 -20 -20 -20 -20 -20 -20 -20 -20 -20 -20 -20 -20 -20
-16 4 -18 13 -20 -20 -20 -20 -0 9 -19 -7 -13 26 20 4 8 -12 -19 -20 -20 -20 -20 -20 -20 -20 -20 -20 -20 -7 -20 -20 -20 -20 -20 -20 -20 -20 -20 -20 -20 -20 -20
-20 -6 -20 -20 -20 -20 -18 -4 11 -20 14 -20 24 14 23 26 11 -12 -11 -20 -20 -20 -20 -20 -20 -20 -20 -20 -20 -20 -18 -20 -20 -19 -20 -20 -20 -20 -20 -20 -20 -20 -20
-20 -20 -20 -20 -12 -5 -12 0 16 -8 25 19 29 22 23 -2 -14 -20 -20 -20 -20 -20 -20 -20 -20 -20 -20 -20 -20 -20 -20 -20 -20 -20 -20 -20 -20 -20 -20 -20 -20 -20 -20
-20 -20 -20 -20 -20 -1 -15 13 9 9 25 9 -14 -20 -20 -20 -20 -20 -20 -20 -20 -20 -20 -20 -20 -20 -20 -20 -20 -19 -20 -20 -20 -20 -20 -20 -20 -20 -20 -20 -20 -5 -20
-20 -20 -20 -20 -19 -20 -2 4 9 -15 -20 -20 -20 -20 -20 -20 -20 -20 -20 -20 -20 -20 -20 -20 -20 -20 -20 -20 -18 -16 -20 -20 -20 -20 -20 -20 -20 -20 -20 -20 -4 -20 -20
-20 -20 -20 -20 -20 -20 -13 -19 -20 -20 -20 -20 -20 -20 -20 -20 -20 -20 -20 -20 -20 -20 -20 -20 -20 -20 -20 -20 -14 -2 -16 -20 -13 -20 -20 -20 -20 -20 -20 -20 -20 -2 -19
-20 -20 -20 -20 -20 -20 -20 -20 -20 -20 -20 -20 -20 -20 -20 -20 -20 -20 -20 -20 -20 -20 -20 -20 -20 -20 -20 -20 -20 -20 -20 -4 5 -20 -20 -20 -20 -20 -20 -20 -20 -20 -20
-20 -20 -20 -20 -20 -20 -20 -20 -20 -20 -20 -20 -20 -20 -20 -20 -20 -20 -20 -20 -20 -10 -20 -20 -20 -20 -20 -20 -20 -20 -20 19 -3 -20 -20 -20 -20 -20 -20 -20 -20 -20 -20
-20 -20 -20 -20 -20 -20 -20 -20 -20 -20 -20 -20 -20 -20 -20 -20 -20 -20 -20 -20 -20 -20 -6 4 -8 -20 -20 -20 -20 -20 -20 -9 14 5 -19 -20 -20 -20 -20 -20 -20 -20 -20
-20 -20 -20 -20 -20 -20 -20 -20 -20 -20 -20 -20 -20 -20 -20 -20 -20 -18 6 -6 9 4 -14 -17 -18 5 33 12 -18 -2 15 -6 -16 -6 -0 -20 -20 -20 -20 -20 -20 -20 -20
-20 -20 -20 -20 -20 -20 -20 -20 -20 -20 -20 -20 -20 -16 5 7 7 3 -1 10 13 9 6 23 -0 -5 8 8 -16 -20 -5 3 -2 -8 4 -20 -20 -20 -20 -20 -20 -20 -20
-20 -20 -20 -20 -20 -20 -20 -20 -20 -20 -20 -20 -20 -18 0 -16 -20 -20 -20 -20 -1 -1 11 7 4 7 11 17 -3 -20 -5 3 -7 -8 -15 -17 -20 -20 -20 -20 -20 -20 -20
-20 -20 -20 -20 -20 -20 -20 -20 -20 -20 -20 -20 -20 -20 -20 -19 -20 -20 -20 -20 -20 -20 14 -6 12 13 -16 11 2 -20 -19 -3 -20 -6 15 -3 -7 -20 -20 -20 -20 -20 -20
-20 -20 -20 -20 -20 -20 -20 -20 -20 -20 -20 -20 -20 -20 -20 -20 -20 -20 -20 -20 -20 -20 5 19 22 19 15 9 -20 -20 -20 0 -9 8 4 -19 -20 -20 -20 -20 -20 -20 -20
-20 -20 -20 -20 -20 -20 -20 -20 -20 -20 -20 -20 -20 -20 -20 -20 -20 -20 -20 -10 -20 -20 -2 -6 1 3 -3 -1 7 3 4 3 8 2 -4 -20 -20 -20 -20 -20 -20 -20 -20
-20 -20 -20 -20 -20 -20 -20 -20 -20 -20 -20 -20 -20 -20 -20 -20 -20 -11 -20 -2 -1 -20 -20 -9 4 -17 -9 12 13 12 21 0 -0 -20 -20 -5 -18 -20 -20 -20 -20 -20 -20
-20 -20 -20 -20 -20 -20 -20 -20 -20 -20 -20 -20 -20 -20 -20 -19 -4 -4 -4 -5 -2 -2 -19 -18 -7 -15 -7 6 2 16 6 5 -12 -20 -2 -0 -19 -20 -20 -20 -20 -20 -20
-20 -20 -20 -20 -20 -20 -20 -20 -20 -20 -20 -20 -20 -20 -20 -20 -20 -14 -20 -20 -2 -1 -0 0 -15 -10 19 12 3 2 -0 5 1 -8 8 2 -20 -20 -20 -20 -20 -20 -20
-20 -20 -20 -20 -20 -20 -20 -20 -20 -20 -20 -20 -20 -20 -20 -20 -20 -20 -19 -20 -20 -6 -10 -19 -3 -17 1 9 5 6 -3 -6 12 8 13 10 -16 -20 -20 -20 -20 -20 -20
-20 -20 -20 -20 -20 -20 -20 -20 -20 -20 -20 -20 -20 -20 -20 -20 -20 -20 -20 -20 -20 -19 -20 -17 -20 -5 -20 -1 -15 -20 -5 -17 -16 13 4 8 5 -20 -20 -20 -20 -20 -20
-20 -20 -20 -20 -20 -20 -20 -20 -20 -20 -20 -20 -20 -20 -20 -20 -20 -20 -20 -20 -20 -20 -20 -20 -20 -20 -20 -20 -20 -20 -20 -20 0 14 -4 -4 4 -20 -20 -20 -20 -20 -20
-20 -20 -20 -20 -20 -20 -20 -20 -20 -20 -20 -20 -20 -20 -20 -20 -20 -20 -20 -20 -20 -20 -20 -20 -20 -20 -20 -20 -20 -20 -20 -20 6 15 8 -7 -5 -8 -20 -20 -20 -20 -20

GFSGL_prec_radar_054.txt.gz
Reflectivity
-20 -20 -13 2 -0 -9 1 -2 20 11 5 19 23 29 15 -0 4 15 28 19 29 12 -6 -20 -20 -20 -20 -20 -20 -20 -20 -16 -20 -20 -20 -20 -20 -20 -20 -20 -20 -20 -20
-20 -20 0 -3 -19 -1 -20 -20 13 17 9 10 -20 14 4 6 -13 9 4 32 21 -4 -20 -20 -20 -20 -20 -20 -20 -20 -1 -20 -20 -20 -20 -20 -20 -20 -20 -20 -20 -20 -20
-20 -17 -20 -18 -20 -8 -20 17 11 16 -16 -20 19 16 -19 -20 20 23 19 25 1 -14 -20 -20 -20 -20 -20 -20 -12 -20 -20 -20 -20 -20 -20 -20 -20 -20 -20 -20 -20 -20 -20
-20 -20 -20 -20 -20 -20 -20 -20 -20 -12 -8 -20 -6 3 -12 -15 16 27 21 -2 -19 -19 -12 3 -15 -20 -20 -20 -10 -20 -20 -20 -20 3 -20 -20 -20 -20 -18 -20 -20 -20 -20
-20 14 1 -19 -20 -20 -20 -20 -20 -20 -20 -20 -1 -15 9 22 13 12 -2 -15 1 -17 -20 -20 -20 -20 -20 -20 -20 -20 -19 -12 4 -16 -4 -20 -13 -20 -1 -20 -20 -20 -20
21 -20 -20 -20 -20 -20 -20 -20 -20 -20 -20 -7 18 -6 17 17 15 11 -5 3 -20 -20 -20 -20 -20 -20 -20 -20 -20 -20 -20 -2 12 15 1 -16 -20 -16 -20 -20 -20 -20 -20
-20 -20 -20 -20 -20 -20 -20 -20 -18 -17 -20 9 -14 -9 -17 -13 11 -20 -20 -20 -20 -20 -20 -20 -20 -20 -20 -20 -20 -20 -20 -20 -20 7 1 5 8 -20 -20 -20 -20 -20 -20
-20 -20 -20 -20 -20 -17 -18 -20 -20 -20 -11 -20 -7 1 -7 -12 -20 -20 -20 -20 -20 -20 -20 -20 -20 -20 -20 -20 -1 6 -5 -8 -20 -20 -20 -16 -16 -20 -20 -20 -20 -20 -20
-20 -20 -20 -20 -20 -19 -20 -20 -20 -20 -20 -20 -20 -20 -20 -20 -20 -20 -20 -20 -20 -20 -20 -20 -20 -20 -20 -20 -18 11 10 18 15 -20 -6 -20 -20 -20 -20 -20 -20 -20 -11
-20 -20 -20 -20 -20 -20 -20 -20 -20 -20 -20 -20 -20 -20 -20 -20 -20 -20 -20 -20 -20 -20 -20 -20 -20 -20 -20 -20 -5 -20 17 6 10 2 -18 -20 -18 -20 -20 -20 -20 -20 -20
-20 -20 -20 -20 -20 -20 -20 -20 -20 -20 -20 -20 -20 -20 -20 -20 -20 -20 -20 -20 -20 -20 -20 -19 -19 -0 8 -12 -20 -20 -4 7 18 -20 -10 12 -20 -20 -20 -20 -20 -20 -20
-20 -20 -20 -20 -20 -20 -20 -20 -20 -20 -20 -20 -20 -20 -20 -20 -20 -20 -20 -20 -20 -7 -16 -2 -18 5 -1 6 7 -11 11 8 21 28 6 24 10 -20 -20 -20 -20 -20 -20
-20 -20 -20 -20 -20 -20 -20 -20 -20 -20 -20 -20 -20 -20 -20 -20 -20 -20 -20 -20 -20 5 -18 -5 -20 -20 -20 -11 -11 27 26 20 8 8 3 2 6 -14 -18 -20 -20 -20 -20
-20 -20 -20 -20 -20 -20 -20 -20 -20 -20 -20 -20 -20 -20 -20 -20 -20 -20 -18 -18 -3 5 -15 11 -20 -19 -20 -20 4 13 10 33 15 5 8 -3 13 2 -4 -20 -2 3 2
-20 -20 -20 -20 -20 -20 -20 -20 -20 -20 -20 -20 -20 -20 -20 -20 -20 -9 -3 -3 -0 1 -7 9 4 7 15 20 -8 10 14 18 6 9 13 12 10 8 1 -8 -9 1 2
-20 -20 -20 -20 -20 -20 -20 -20 -20 -20 -20 -20 -20 -20 -20 -20 -20 -20 -20 -20 -20 -20 -6 14 18 20 20 21 8 20 28 18 -5 3 5 10 11 8 4 1 -6 2 3
-20 -20 -20 -20 -20 -20 -20 -20 -20 -20 -20 -20 -20 -20 -20 -20 -20 -20 -20 -20 -20 -20 2 3 4 -3 6 31 16 20 26 8 -14 -19 12 10 12 13 8 5 5 1 3
-20 -20 -20 -20 -20 -20 -20 -20 -20 -20 -20 -20 -20 -20 -20 -20 -20 -20 -20 -20 -20 -20 -9 -0 1 2 -7 -1 0 22 20 -2 1 4 5 11 15 9 10 3 -1 6 4
-20 -20 -20 -20 -20 -20 -20 -20 -20 -20 -20 -20 -20 -20 -20 -20 -20 -20 -20 -1 -2 -6 -4 -4 -0 -1 0 -3 3 1 18 16 17 22 6 9 14 11 12 3 -5 -7 -8
-20 -20 -20 -20 -20 -20 -20 -20 -20 -20 -20 -20 -20 -20 -20 -20 -20 -20 -4 2 3 -1 1 -0 -2 0 3 3 5 2 -1 11 18 13 13 13 13 11 12 3 5 7 -4
-20 -20 -20 -20 -20 -20 -20 -20 -20 -20 -20 -20 -20 -20 -20 -20 -4 -11 -5 2 2 3 2 1 2 2 4 3 -0 -1 -1 12 17 14 14 12 17 11 7 3 5 5 2
-20 -20 -20 -20 -20 -20 -20 -20 -20 -20 -20 -20 -20 -20 -20 -19 -20 -20 -20 -2 3 3 3 -13 2 2 2 5 1 7 14 10 8 2 16 12 15 14 6 7 7 4 1
-20 -20 -20 -20 -20 -20 -20 -20 -20 -20 -20 -20 -20 -20 -20 -11 -5 -3 -1 2 2 1 2 2 2 -2 0 2 2 1 2 2 6 -2 -4 14 15 11 7 6 8 7 -1
-20 -20 -20 -20 -20 -20 -20 -20 -20 -20 -20 -20 -16 -5 -4 -4 -0 0 0 3 0 1 -0 0 -2 -1 -3 -1 0 -3 2 2 -1 -15 1 4 17 12 8 4 7 0 -1
-20 -20 -20 -20 -20 -20 -18 -20 -20 -20 -20 -4 -3 -1 -4 -2 -2 1 2 -0 -1 0 -2 2 -0 -0 -18 -20 -20 -9 1 -11 -20 -16 -4 -3 13 15 8 -1 6 3 4
-20 -20 -20 -20 -19 -16 -17 -20 -20 -10 -14 -4 -2 -2 -0 -0 -1 1 -1 -1 -1 -8 -3 -2 -3 -12 -20 -20 -20 -13 -19 -20 -15 -17 1 -5 13 14 10 6 1 5 -0

GFSGL_prec_radar_057.txt.gz
Reflectivity
-20 11 -20 2 -17 3 4 -5 -14 6 -20 -20 -20 3 25 16 -0 4 28 6 16 29 18 -12 -12 3 10 -5 -20 -20 -20 -20 -20 -20 -20 -20 -20 -20 -20 -20 -20 -20 -20
-20 -20 -20 -1 -18 -18 -10 22 13 7 -14 -20 11 30 25 -16 21 13 -6 -19 20 25 -20 0 -20 -16 -20 -20 -20 -19 -20 -20 -20 -20 -20 -20 -20 -20 -20 -20 -20 -20 -20
-20 -20 -2 -11 17 -9 5 13 -3 14 2 -18 -8 -12 -3 -20 -19 16 9 -2 1 -15 1 -20 -20 -20 -20 -20 -20 -20 -20 -20 -20 -4 -20 -20 -20 -20 -20 -20 -20 -20 -20
-20 -20 -20 6 -7 -10 3 4 -6 -13 6 8 -20 -14 -20 4 11 -13 20 12 3 -11 -20 -17 -20 -20 -20 -20 -20 -20 -20 -20 -12 14 -18 -20 -9 -19 -19 -20 -16 -20 -14
-20 -20 -20 -20 -20 -20 -20 -20 -16 -19 -20 -20 -20 -20 -20 -12 -1 9 11 -7 -20 -20 -20 -5 -20 -20 -20 -20 -20 -20 -20 -20 -20 -5 10 5 -20 -20 -2 -20 -12 -20 -20
-13 -19 -20 -20 -20 -7 -20 -20 -20 -20 -20 -20 -20 -20 -1 11 -0 6 6 -20 -6 -7 -20 -20 -20 -20 -20 -20 -20 -20 -20 -20 -20 5 6 14 12 15 9 10 12 -20 -20
-20 -20 -20 -20 -20 -20 -20 -20 -20 -20 -20 -20 -20 -20 -20 -20 -17 -20 -20 -20 -20 -20 -20 -20 -20 -20 -20 -20 -20 -20 -20 -20 -20 -20 -20 -0 20 18 17 -11 3 -20 -20
-20 -20 -20 -20 -20 -20 -20 -20 -20 -8 -1 -2 -20 -20 -10 -10 -20 -20 -20 -20 -20 -20 -20 -20 -20 -20 -20 -20 -20 -18 -12 1 15 -17 -20 -20 -20 -19 3 -7 -18 -20 -20
-20 -20 -20 -20 -20 -20 -20 -20 -5 -19 -10 -20 -20 -20 -20 -20 -20 -20 -20 -20 -20 -20 -20 -20 -20 -20 -20 -20 -20 -17 -19 -20 -20 -19 19 6 -8 -9 -20 -15 -10 -20 -20
-20 -20 -20 -20 -20 -20 -20 -20 -20 -20 -20 -20 -20 -20 -20 -20 -20 -20 -20 -20 -20 -20 -20 -20 -20 -20 -20 -20 -20 1 11 8 -17 12 -6 8 -17 -20 -20 -15 -2 -20 -20
-20 -20 -20 -20 -20 -20 -20 -20 -20 -20 -20 -20 -20 -20 -20 -20 -20 -20 -20 -20 -20 -20 -20 -20 -20 -20 -20 -20 -20 -15 1 2 -2 15 20 17 17 -20 -20 -20 -19 -0 -20
-20 -20 -20 -20 -20 -20 -20 -20 -20 -20 -20 -20 -20 -20 -20 -20 -20 -20 -20 -20 -20 -20 -20 -20 -20 -20 -20 -20 -20 -20 -20 -9 8 9 13 -0 20 16 -10 -17 -13 -20 -20
-20 -20 -20 -20 -20 -20 -20 -20 -20 -20 -20 -20 -20 -20 -20 -20 -20 -20 -20 -20 -20 -20 -20 -20 -20 -20 -20 -20 -20 -20 -20 5 1 3 34 5 17 2 -4 11 -1 7 -20
-20 -20 -20 -20 -20 -20 -20 -20 -20 -20 -20 -20 -20 -20 -20 -20 -20 -20 -20 -20 -20 -20 -20 -20 -20 -20 -20 -20 -16 -17 18 -16 -6 1 19 33 15 11 24 12 4 -0 -20
-20 -20 -20 -20 -20 -20 -20 -20 -20 -20 -20 -20 -20 -20 -20 -20 -20 -20 -20 -20 -20 -20 -13 -11 9 3 7 4 -10 20 18 13 8 8 26 17 9 17 14 1 5 -0 2
-20 -20 -20 -20 -20 -20 -20 -20 -20 -20 -20 -20 -20 -20 -20 -20 -20 -20 -20 -20 -20 -20 -20 -16 4 11 8 4 9 2 22 11 13 38 33 13 12 16 10 6 6 3 -4
-20 -20 -20 -20 -20 -20 -20 -20 -20 -20 -20 -20 -20 -20 -20 -20 -20 -20 -20 -20 -20 -20 -20 -20 -19 9 8 4 6 4 14 32 1 -7 2 11 0 14 14 10 9 6 2
-20 -20 -20 -20 -20 -20 -20 -20 -20 -20 -20 -20 -20 -20 -20 -20 -20 -20 -20 -20 -20 -20 -20 -20 -19 -16 -0 1 6 8 6 5 6 27 9 -4 -16 18 15 10 13 7 -5
-20 -20 -20 -20 -20 -20 -20 -20 -20 -20 -20 -20 -20 -20 -20 -20 -20 -20 -20 -11 -3 -11 -20 -20 -9 -11 -20 -3 10 7 5 6 6 4 17 15 22 14 18 14 13 8 3
-20 -20 -20 -20 -15 -19 -20 -20 -20 -20 -20 -20 -20 -20 -20 -20 -20 -20 -20 -7 -1 -2 -2 -2 -1 -7 -20 8 10 10 7 5 2 3 15 22 12 10 10 15 12 8 -1
-7 -15 -15 -18 -20 -20 -20 -20 -20 -20 -20 -20 -20 -20 -20 -20 -20 -20 -20 -6 -3 -1 1 2 -8 7 8 4 8 10 2 4 6 4 4 1 18 17 16 19 12 5 -1
1 -12 -18 -20 -20 -20 -20 -20 -20 -20 -20 -20 -20 -20 -20 -20 -8 -20 -7 -3 1 2 -20 -20 -12 5 7 5 7 10 7 3 5 9 11 -0 -7 5 19 12 10 10 4
-3 -1 -15 -20 -20 -20 -20 -20 -20 -9 -20 -20 -20 -11 -9 -1 -0 -1 -1 2 2 -6 -12 -6 7 7 4 7 1 6 10 7 6 13 6 2 -2 -13 20 15 14 12 2
-19 -20 -20 -20 -20 -20 -20 -5 -4 -20 -20 -20 -1 1 -0 -0 1 0 2 1 2 -8 2 8 3 4 8 9 9 8 6 5 8 6 0 3 1 -12 -2 17 16 5 6
-20 -20 -20 -20 -18 -3 -1 -1 -1 -2 -0 -1 0 -0 -0 0 -1 1 1 1 -19 -10 1 1 7 5 2 2 2 1 -1 4 -4 -18 2 0 -1 -20 -9 16 13 12 4
-20 -20 -17 -5 -3 -0 0 1 1 1 -0 0 -0 -1 2 1 -0 1 0 -7 -8 -14 0 3 2 -1 -3 2 2 3 -3 -20 -20 -0 7 1 -4 -19 -8 16 13 12 3

GFSGL_prec_radar_060.txt.gz
Reflectivity
-20 -20 -16 -20 -12 34 14 -15 -20 -12 -4 -16 -20 -20 7 -1 21 27 32 8 -7 13 -2 -15 8 12 -15 -20 -20 -20 -20 -20 -20 -20 -20 -20 -20 -20 -20 -20 -20 -20 -20
-16 -0 26 2 37 35 33 -19 -20 -20 20 -13 -17 -4 12 -20 -19 4 13 17 6 -0 -5 -5 -20 -20 -20 -20 -20 -20 -20 -20 -20 -20 -20 -20 -20 -20 -20 -20 -20 -20 -20
-8 12 -4 -7 -2 -20 1 6 -9 1 14 15 6 15 -6 10 3 -6 16 4 2 5 4 1 5 -15 -20 -20 -20 -20 -20 -20 -17 6 -20 -20 -20 -20 -20 -17 -20 -20 -20
31 8 -14 -19 -20 -10 -12 6 13 9 13 6 6 -7 14 -1 -3 -13 2 -2 -7 -11 -6 -6 -19 -20 -20 -20 -20 -19 -20 -1 -4 8 3 -20 -20 -20 -2 -3 -20 -20 -19
-20 -20 -19 -18 16 22 14 24 -0 2 -11 4 2 -19 -9 -20 -11 -20 -8 -2 -14 -20 -20 -19 -20 -20 -4 -17 -20 -20 -20 -20 -20 -20 -20 -20 -20 -20 -18 12 8 5 -20
-20 -2 -1 -20 -20 22 -11 -20 -20 -13 1 -20 -20 -20 -20 -20 -5 3 -4 -20 -20 -20 -4 -20 -20 -20 -20 -20 -20 -20 -20 -19 -8 5 4 6 -20 13 -19 18 16 5 5
-20 -20 -20 -20 -20 -20 -20 -20 -20 -20 -20 -20 -20 -20 -20 -20 -10 -20 -20 -20 -20 -20 -20 -20 -20 -20 -20 -20 -20 -20 -20 -20 -20 -3 7 -0 14 15 20 15 13 9 23
-20 -20 -20 -20 -20 -20 -20 -20 -20 -20 -20 -20 -20 -20 -20 -8 -20 -20 -20 -20 -20 -20 -20 -20 -20 -20 -20 -20 -20 -20 -20 -20 -20 -20 -18 -15 11 7 19 13 11 -20 -20
-20 -20 -20 -20 -20 -20 -20 -20 -20 -20 -20 -20 -20 -20 -20 -20 -20 -20 -20 -20 -20 -20 -20 -20 -20 -20 -20 -20 -20 -20 -20 -20 -20 -20 -20 -15 4 -13 11 13 13 -20 -20
-20 -20 -20 -20 -20 -20 -20 -20 -20 -20 -20 -20 -20 -20 -20 -20 -20 -20 -20 -20 -20 -20 -20 -20 -20 -20 -20 -20 -20 -20 -20 -20 -20 -20 -20 -20 -20 -20 19 18 19 8 -20
-20 -20 -20 -20 -20 -20 -20 -20 -20 -20 -20 -20 -20 -20 -20 -20 -20 -20 -20 -20 -20 -20 -20 -20 -20 -20 -20 -20 -20 -20 -20 -20 -20 -16 -20 -20 -15 3 -16 -20 4 -20 -20
-20 -20 -20 -20 -20 -20 -20 -20 -20 -20 -20 -20 -20 -20 -20 -20 -20 -20 -20 -20 -20 -20 -20 -20 -20 -20 -20 -20 -20 -20 -20 -20 -20 -11 -20 -20 -6 -19 14 13 -5 -17 -20
-20 -20 -20 -20 -20 -20 -20 -20 -20 -20 -20 -20 -20 -20 -20 -20 -20 -20 -20 -20 -20 -20 -20 -20 -20 -20 -20 -20 -3 4 -20 -20 -20 -20 -20 -20 -7 1 10 24 34 -20 -20
-20 -20 -20 -20 -20 -20 -20 -20 -20 -20 -20 -20 -20 -20 -20 -20 -20 -20 -20 -20 -20 -20 -20 -20 -20 -20 -20 -20 -20 -20 -20 -7 1 19 -6 -7 0 20 27 20 -2 -20 -20
-20 -20 -20 -20 -20 -20 -20 -20 -20 -20 -20 -20 -20 -20 -20 -20 -20 -20 -20 -20 -20 -20 -20 -20 -20 -20 -20 -20 -20 -20 -20 -20 -20 12 7 -12 4 10 1 6 -13 -19 -20
-20 -20 -20 -20 -20 -20 -20 -20 -20 -20 -20 -20 -20 -20 -20 -20 -20 -20 -20 -20 -20 -20 -20 -20 -20 -20 -20 -20 -20 -20 -20 -18 -11 -18 23 -1 25 18 6 0 -20 -20 -20
-20 -20 -20 -20 -20 -20 -20 -20 -20 -20 -20 -20 -20 -20 -20 -20 -20 -20 -20 -20 -20 -20 -20 -20 -20 -20 -20 -18 -14 -1 1 -14 -12 -19 3 19 11 -20 -15 12 -20 -20 -20
-20 -18 -20 -18 -16 -18 -18 -20 -20 -20 -20 -20 -20 -20 -20 -20 -20 -20 -20 -20 -20 -20 -20 -20 -20 -20 -20 -7 -18 -3 2 -1 -3 -19 -16 3 6 -7 -20 11 8 -19 -19
-20 -6 1 -10 -1 8 11 -11 -20 -20 -20 -20 -20 -20 -20 -20 -20 -20 -20 -14 -20 -20 -15 -20 -20 -20 -20 -20 -13 -5 -8 4 -20 -19 -20 -4 -19 4 -2 -4 -8 -19 -11
14 13 3 6 20 19 16 6 -4 -16 -20 -20 -20 -20 -20 -20 -20 -20 -20 -20 -20 -20 -20 -20 -15 -20 -20 -10 -2 -13 -6 -13 -14 -20 -20 -2 5 12 25 -5 -14 18 13
11 19 22 16 17 16 11 3 -0 -12 -20 -20 -20 -20 -20 -20 -20 -20 -18 -20 -20 -20 -20 -17 -1 -20 -15 -15 -0 -13 -3 -8 -20 0 -6 -20 -20 5 -20 -20 6 7 -18
21 23 21 16 10 8 9 2 -20 -20 -20 -20 -20 -20 -20 -20 -2 -20 -20 -20 -20 -20 -20 -20 -20 -10 -8 1 -11 -20 1 -20 -12 -1 -20 -20 -20 -18 1 -20 8 10 4
16 13 12 10 8 5 -5 -20 -20 -20 -20 -20 -20 -20 -20 -20 -20 -20 -20 -20 -20 -20 -20 -20 -20 -5 -14 -20 -16 4 -0 0 -13 -20 -20 -20 -6 1 -1 -20 -7 21 9
9 7 6 2 -16 -20 -20 -17 -20 -20 -20 -20 -6 -20 -7 -20 -20 -20 -20 -20 -20 -20 -20 -12 -18 -20 -20 0 -2 -2 -4 -20 -20 -8 -4 -20 -17 -4 -6 -20 -7 12 -1
5 -4 -15 -20 -20 -3 -20 -5 -2 -20 -19 -20 -20 -20 -20 -19 -5 -20 -20 -20 -20 -18 -19 -20 -18 -2 -15 -20 -20 -20 -18 3 -20 -20 -20 -20 -20 -20 -20 -20 -20 -4 19
-20 -20 -20 -14 -12 -1 -5 -20 -20 -20 -20 -20 -20 -20 -16 -18 -20 -20 -19 -20 -12 -20 -20 -13 -20 -20 -20 -20 -15 -12 -20 -20 -20 -20 -13 -20 -20 -20 -20 -20 -20 4 19

GFSGL_prec_radar_063.txt.gz
Reflectivity
-20 -20 -20 -20 -20 31 2 37 36 16 8 21 -19 6 18 7 -17 -16 -14 -18 -20 -16 10 -12 -11 11 -20 -20 -20 -18 -20 -20 -20 -20 -20 -20 -20 -20 -20 -20 -20 -20 -20
30 28 -2 25 37 33 41 50 35 -9 18 26 -12 9 -16 -20 -20 -19 -20 -13 -16 7 26 11 4 -6 -17 -20 -3 -19 -0 -20 -19 -20 -20 -20 -20 -20 -20 -20 0 -20 -20
35 39 23 6 22 30 13 10 24 20 -4 1 11 3 -20 1 13 -2 10 17 0 -8 18 11 -16 -15 -14 -20 -20 -11 4 -9 -16 6 -17 -20 -20 -20 -20 -20 -20 17 21
37 31 4 -5 -9 -20 17 5 -0 14 12 8 -16 -15 -3 7 2 -13 6 -13 -12 -14 -8 -20 -20 -20 -20 -20 -16 -20 -20 -13 2 6 1 -14 -20 -20 -8 -8 -16 -20 -20
30 1 -20 -20 17 14 -16 -20 -20 -16 -12 -18 -20 -15 1 16 -2 -15 -17 -9 -14 -17 -16 -20 -20 -20 -20 -20 -20 -20 -19 -20 -20 -20 -20 -20 -20 -20 -20 -11 3 11 4
-20 -20 -20 -20 -20 -20 -20 -20 -20 -20 -20 -20 -14 3 5 -7 -20 -20 -20 -20 -20 -20 -20 -20 -20 -20 -20 -20 -20 -20 -20 -20 -20 -20 -20 -20 -20 -20 -20 8 16 16 10
-20 -20 -20 -20 -20 -20 -20 -20 -20 -20 -20 -20 -20 -20 -20 -20 -20 -20 -20 -20 -20 -20 -20 -20 -20 -20 -20 -20 -20 -20 -20 -20 -20 -20 -20 -20 -20 -20 -19 -0 -16 14 11
-20 -20 -20 -20 -20 -20 -20 -20 -20 -20 -20 -20 -20 -20 -20 -20 -20 -20 -20 -20 -20 -20 -20 -20 -20 -20 -20 -20 -20 -20 -20 -20 -20 -20 -20 -20 -17 -20 -9 13 4 15 9
-20 -20 -20 -20 -20 -20 -20 -20 -20 -20 -20 -20 -20 -20 -20 -20 -20 -20 -20 -20 -20 -20 -20 -20 -20 -20 -20 -20 -20 -20 -20 -20 -20 -20 -20 -20 -20 -20 -20 -20 -2 -20 8
-20 -20 -20 -20 -20 -20 -20 -20 -20 -20 -20 -20 -20 -20 -20 -20 -20 -20 -20 -20 -20 -20 -20 -20 -20 -20 -20 -20 -20 -20 -20 -20 -20 -20 -20 -20 -20 -20 -20 -20 -9 -14 17
-20 -20 -20 -20 -20 -20 -20 -20 -20 -20 -20 -20 -20 -20 -20 -20 -20 -20 -20 -20 -20 -20 -20 -20 -20 -20 -20 -20 -20 -20 -19 -15 -20 -20 -20 -20 -20 -20 -20 -20 5 4 4
-20 -20 -20 -20 -20 -20 -20 -20 -20 -20 -20 -20 -20 -20 -20 -20 -20 -20 -20 -20 -20 -20 -20 -20 -20 -20 -20 -20 -20 -16 -20 -20 -1 -2 -6 -20 -20 -20 -20 -13 -2 -20 -7
-20 -20 -20 -20 -20 -20 -20 -20 -20 -20 -20 -20 -20 -20 -20 -20 -20 -20 -20 -20 -20 -20 -20 -20 -20 -20 -20 -20 -20 -20 -20 -20 -20 -20 -20 -20 -20 -20 -20 -13 -15 -20 10
-20 -20 -20 -20 -20 -20 -20 -20 -20 -20 -20 -20 -20 -20 -20 -20 -20 -20 -20 -20 -20 -20 -20 -20 -20 -20 -20 -20 -20 -20 -20 -20 -20 2 -20 -20 2 4 -20 -5 5 20 -9
-20 -20 -20 -20 -20 -20 -20 -20 -20 -20 -20 -20 -20 -20 -20 -20 -20 -20 -20 -20 -20 -20 -20 -20 -20 -20 -20 -20 -20 -20 -20 -20 -20 -20 -20 -20 -20 -6 13 18 23 1 -19
-20 -20 -20 -20 -20 -20 -20 -20 -20 -20 -20 -20 -20 -13 -20 -19 -20 -20 -20 -20 -20 -20 -20 -20 -20 -20 -20 -20 -20 -20 -20 -20 -20 -9 -20 -20 -19 -20 -0 17 11 -12 -20
-20 -20 -20 -20 -20 -20 -20 -18 -16 -5 -0 -4 -8 -3 1 5 -20 -20 -20 -20 -20 -20 -20 -20 -20 -20 -20 -20 -20 -20 -20 -16 -8 2 -20 -20 -20 0 -20 -16 15 2 -19
-20 -20 -20 -20 -18 -5 5 5 4 -2 -12 12 13 11 -1 0 7 0 -15 -20 -20 -20 -20 -20 -20 -20 -20 -20 -20 -20 -20 -20 -5 -5 -20 -20 -20 -16 -20 -20 -7 -20 -20
-20 -20 -13 11 12 13 12 7 6 17 11 -0 -6 -13 -14 5 9 5 -10 -20 -20 -20 -20 -20 -20 -20 -20 -20 -20 -20 -19 -20 -20 -18 -20 -20 -15 -0 -14 -20 -20 7 -3
9 12 10 13 17 13 19 20 15 12 9 6 0 -9 -15 -15 -18 -20 -20 -20 -20 -20 -20 -20 -20 -20 -20 -20 -20 -20 -20 -20 -7 -20 -20 -1 -20 -18 -11 -2 7 -0 -1
17 20 25 24 22 18 15 13 9 7 7 3 1 -11 -20 -20 -20 -20 -20 -20 -20 -20 -20 -20 -20 -20 -20 -20 -1 -20 -20 -20 -20 -20 -2 -20 -20 -20 -20 12 15 -20 -20
24 24 23 22 20 18 15 12 11 11 2 -19 -10 -10 -20 -20 -20 -20 -20 -20 -20 -20 -20 -20 -20 -20 -20 -20 -20 -20 -20 -3 -20 -18 -20 -20 -20 -20 -20 -20 -20 -20 -20
21 20 17 14 12 13 11 8 4 -5 -16 -12 -20 -20 -20 -20 -20 -20 -20 -20 -20 -20 -20 -20 -20 -20 -20 -20 -20 -0 -12 -20 -20 -20 -20 -20 -20 -20 -20 -20 -20 -20 3
13 14 14 13 10 7 1 -2 -3 -7 -19 -20 -20 -20 -20 -20 -20 -20 -20 -20 -20 -20 -20 -20 -20 -20 -20 -20 -20 -20 -20 -20 -20 -20 -4 -20 -20 -20 -20 -20 -8 -13 -20
9 5 2 -4 -5 -6 -7 -20 -20 -20 -20 -20 -20 -20 -20 -20 -20 -20 -20 -20 -20 -20 -20 -20 -20 -20 -20 -20 -20 -20 -20 -20 -20 -20 -20 -20 -20 -20 -20 -20 -20 -20 -20
3 2 -1 -10 -20 -20 -20 -20 -20 -20 -20 -20 -20 -20 -20 -20 -20 -20 -20 -20 -20 -20 -20 -20 -20 -20 -20 -20 -20 -12 -20 -20 -20 -20 -5 -18 -20 -20 -20 -20 -20 -20 -20

GFSGL_prec_radar_066.txt.gz
Reflectivity
-20 -20 -20 -20 -20 -20 -9 15 23 37 37 23 9 -18 7 -17 -18 -7 15 -20 -8 -4 -20 -20 -20 -13 -1 -18 17 -19 -20 -20 -7 -20 -20 -20 -20 -20 -20 -20 -20 -20 -20
8 25 24 -2 -19 -5 22 39 46 41 23 26 -3 -14 -18 -20 -17 0 -8 9 -8 -20 -11 15 -13 7 -5 22 1 -15 -19 -20 -7 1 -20 -20 -20 -20 -20 -20 -20 -20 -20
12 28 26 24 33 34 21 32 4 7 14 6 -8 11 -14 -20 13 -6 7 8 -13 10 21 10 2 -2 14 -20 -20 -20 -20 -15 -11 -20 -20 -20 -20 -20 -20 -20 -20 -20 -19
27 14 4 15 27 33 23 25 -20 -5 -18 -6 8 22 -6 -13 5 -9 12 14 -18 1 13 -5 6 -2 -11 -20 -20 -20 -20 -20 -20 -20 -20 -20 -20 -20 -20 -20 -20 -20 -20
-4 -20 -20 -10 -20 -15 16 -20 10 -20 -7 15 14 15 -5 3 2 19 -17 -20 -6 18 -8 13 1 -20 -20 -20 -20 -20 -20 -20 -20 -20 -20 -20 -20 -20 -20 -20 -20 -20 -14
-20 -20 -20 -20 3 -11 26 30 -2 -1 16 10 16 9 17 8 20 -6 15 4 13 -20 -20 -20 -20 -20 -20 -20 -20 -20 -20 -20 -20 -20 -20 -20 -20 -20 -20 -20 -3 1 5
-7 -20 -8 17 19 -7 10 25 2 9 11 13 16 14 11 -19 2 1 -13 -20 -20 -20 -20 -20 -20 -20 -20 -20 -20 -20 -20 -20 -20 -20 -20 -20 -20 -20 -20 -20 -7 7 6
-20 -20 -6 19 23 21 23 11 9 10 9 -8 -9 -18 -20 -20 -12 3 -20 -20 -20 -20 -20 -20 -20 -20 -20 -20 -20 -20 -20 -20 -20 -20 -20 -20 -20 -20 -20 -20 -14 -12 -20
-20 -20 1 14 7 -20 19 -20 -13 -8 -20 -20 -20 -20 -20 -20 -10 -20 -20 -20 -20 -20 -20 -20 -20 -20 -20 -20 -20 -20 -20 -20 -20 -20 -20 -20 -20 -20 -18 -6 -16 -12 -10
-20 10 -20 -20 -20 -20 -20 -20 -20 -20 -20 -20 -20 -20 -20 -20 9 -20 -20 -20 -20 -20 -20 -20 -20 -20 -20 -20 -20 -20 -20 -20 -20 -20 -20 -20 -20 -20 -6 -12 -20 -17 7
-20 -20 -20 -20 -20 -20 -20 -20 -20 -20 -20 -20 -20 -20 -20 -20 -20 -20 -20 -20 -20 -20 -20 -20 -20 -20 -20 -20 -20 -20 -20 -20 -20 -20 -20 -20 -20 -20 -20 -20 -20 4 1
-20 -20 -20 -20 -20 -20 -20 -20 -20 -20 -20 -20 -20 -20 -20 -20 -20 -20 -20 -20 -20 -20 -20 -20 -20 -20 -20 -20 -20 -20 -20 -20 -20 -20 -20 -20 -20 -20 -20 -16 -12 -17 -17
-20 -20 -20 -20 -20 -20 -20 -20 -20 -20 -20 -20 -20 -20 -20 -20 -20 -20 -20 -20 -20 -20 -20 -20 -20 -20 -20 -20 -20 -20 -20 -20 -20 -20 -20 -20 -20 -20 -20 -20 -14 -20 -20
-20 -20 -20 -20 -20 -20 -20 -20 -20 -20 -20 -20 -20 -20 -20 -20 -20 -20 -20 -20 -20 -20 -19 -20 -20 -20 -20 -20 -20 -20 -20 -20 -20 -20 -20 -20 -20 -20 -20 -20 -13 -16 10
-20 -20 -20 -20 -20 -20 -20 -20 -20 -20 -20 -20 -20 -20 -20 -20 -20 -20 -20 -16 -17 -19 -18 -20 -20 -20 -20 -20 -20 -20 -20 -20 -20 -20 -7 -20 -20 -20 -20 -20 6 20 19
-20 -20 -20 -20 -20 -20 -20 -20 -20 -20 -14 -7 -4 -20 -20 -20 -19 -2 14 -5 -20 -20 -20 -20 -20 -20 -20 -20 -20 -20 -20 -20 -20 -20 -15 -20 -20 -20 -20 -20 -20 -19 7
-20 -20 -20 -20 -20 -20 -20 -18 -17 -5 -2 -8 -10 -9 -0 -2 16 8 -16 -20 -20 -20 -20 -20 -20 -20 -20 -20 -20 -20 -20 -20 -11 -20 -18 -20 -20 -20 -7 -20 -20 -20 -20
-20 9 -16 -20 -15 -12 -14 -7 1 -16 -5 10 7 12 17 9 1 -19 -20 -20 -20 -18 -19 -19 -20 -20 -20 -20 -20 -20 -20 -20 -20 -20 -20 -20 -20 -19 -20 -20 -20 -15 -20
-8 -11 3 14 17 17 17 12 11 17 18 17 14 11 8 8 9 7 -1 -6 -3 -1 -13 -20 -20 -20 -20 -20 -20 -20 -20 -20 -20 -20 -13 -20 -18 -20 -20 -20 -20 -16 3
24 21 22 21 18 17 21 20 17 14 14 11 6 2 7 10 10 10 7 -2 -17 -20 -20 -20 -20 -20 -20 -20 -20 -20 -20 -20 -20 -20 -20 -20 -20 -20 -20 -20 -20 -9 -1
19 14 10 8 5 8 13 15 14 14 15 15 15 14 11 -3 -9 -15 -20 -20 -20 -20 -20 -20 -20 -20 -20 -20 -20 -20 -20 -20 -20 -20 -20 -20 -20 -20 -20 -20 -20 -12 -15
13 12 10 12 13 12 10 7 10 13 12 9 4 -2 -13 -20 -19 -18 -16 -12 -20 -20 -20 -20 -20 -20 -20 -20 -20 -20 -20 -14 -20 -20 -20 -20 -20 -20 -19 -20 -20 -20 4
5 6 4 8 10 8 7 6 2 -1 1 1 -7 -8 -5 -11 -20 -20 -20 -20 -20 -20 -20 -20 -20 -20 -20 -20 -20 -20 -20 -20 -20 -20 -20 -20 -20 -20 -20 -20 -20 -20 -15
-9 -6 0 2 -2 -7 -8 -4 -5 -13 -20 -20 -20 -20 -20 -20 -19 -19 -20 -20 -20 -20 -20 -20 -20 -20 -20 -20 -20 -20 -20 -20 -20 -20 -20 -20 -20 -20 -20 -20 -20 -10 -20
-9 -16 -18 -20 -20 -20 -20 -20 -20 -20 -20 -20 -20 -20 -19 -20 -20 -20 -20 -20 -20 -20 -20 -20 -20 -20 -20 -20 -20 -20 -20 -19 -20 -20 -20 -20 -20 -20 -20 -20 -20 -20 -20
-20 -20 -20 -20 -20 -20 -20 -20 -20 -20 -20 -20 -20 -20 -20 -20 -20 -20 -20 -20 -20 -20 -20 -20 -20 -20 -20 -20 -20 -9 -20 -20 -20 -20 -20 -20 -20 -20 -20 -20 -20 -18 -20

GFSGL_prec_radar_069.txt.gz
Reflectivity
-20 -20 -20 -20 -19 -20 -13 -20 -20 15 13 34 38 33 30 5 28 7 -10 -19 -20 -20 -20 -15 17 -20 -20 -20 -20 -4 6 -19 -19 -20 -20 -20 -20 -20 -20 -20 -20 -20 -20
25 24 23 16 18 -4 8 -2 -20 -3 20 16 33 19 15 7 -8 1 -18 -4 9 22 -20 3 -4 -1 -8 10 16 1 1 -20 -20 -20 -20 -20 -20 -20 -20 -20 -20 -20 -20
17 11 -4 15 10 19 7 24 6 23 30 -3 -6 6 12 9 -20 -16 21 14 4 -19 -1 9 -17 14 10 14 -20 -18 -20 -20 -20 -20 -20 -20 -20 -20 -20 -20 -20 -20 -20
-8 -1 4 6 -20 -20 -6 40 37 13 22 -2 -20 24 -20 6 -20 6 19 -2 -1 -5 -13 -8 -5 6 7 -4 -18 5 -20 -20 -20 -20 -20 -20 -20 -20 -20 -20 -20 -20 -20
-17 -16 -18 27 -20 -20 -20 17 -12 -20 -20 -20 -20 30 -13 -3 -2 21 -3 -20 -13 10 15 -17 -19 10 20 -18 -20 -20 -20 -20 -20 -20 -20 -20 -20 -20 -20 -20 -20 -20 -20
-20 -20 -20 -20 -20 -20 -20 -16 -20 -20 -20 -20 -20 -1 16 21 22 14 12 14 -7 1 -12 -18 -9 21 -20 -20 -20 -20 -20 -20 -20 -20 -20 -20 -20 -20 -20 -20 -20 -20 -20
-20 -20 8 28 -20 -20 -20 -20 -17 -3 -20 -5 23 21 12 -4 17 15 16 -5 -20 3 18 3 -10 -20 -20 -20 -20 -20 -20 -20 -20 -20 -20 -20 -20 -20 -20 -20 -20 -20 -20
-20 -20 1 22 3 23 6 -19 -10 4 -8 4 -11 9 13 16 17 14 7 -7 -3 -6 -20 -20 -20 -20 -20 -20 -20 -20 -20 -20 -20 -20 -20 -20 -20 -20 -20 -18 -15 -20 -20
-20 -20 0 -20 -13 -20 11 -11 -7 6 21 13 21 18 10 13 15 12 5 -20 -20 -20 -20 -20 -20 -20 -20 -20 -20 -20 -20 -20 -20 -20 -20 -20 -20 -20 -20 -9 2 -13 -20
-20 -20 -20 -20 -20 -20 -12 6 8 6 16 17 8 13 18 -14 8 11 8 -20 -20 -20 -20 -20 -20 -20 -20 -20 -20 -20 -20 -20 -20 -20 -20 -20 -20 -20 -20 -20 -20 -14 -20
-20 -12 -20 -20 -20 -20 2 25 19 17 16 13 -3 -19 -20 -13 -9 10 -20 -20 -20 -20 -20 -20 -20 -20 -20 -18 -20 -20 -20 -20 -20 -20 -20 -20 -20 -20 -20 -20 -20 2 9
-20 -20 -11 15 0 -5 21 21 18 15 -1 -17 -20 -20 -20 -20 8 -7 -20 -20 -20 -20 -20 -20 -20 -20 -18 -20 -20 -20 -20 -20 -20 -20 -20 -20 -20 -20 -20 -20 -20 -20 -20
-20 -20 -17 -18 -10 13 16 6 -0 -20 -20 -20 -20 -20 -20 -20 -20 -20 -20 -20 -20 -20 -20 -20 -4 -6 -20 -20 -20 -20 -20 -20 -20 -20 -20 -20 -20 -20 -20 -20 -20 -20 -20
-20 -20 -18 16 19 9 -18 -20 -20 -20 -20 -20 -20 -20 -20 -20 -20 -20 -20 -20 -20 -20 -20 -20 -16 -4 -17 -20 -20 -20 -20 -20 -20 -20 -20 -20 -20 -20 -20 -20 -20 -20 -20
-20 -20 -20 -15 -5 -20 -20 -20 -20 -20 -13 -20 -20 -20 -20 -20 -16 -8 -6 -11 -20 -13 8 6 -10 -6 -19 -20 -20 -20 -20 -20 -20 -20 -20 -20 -20 -20 -20 -20 -20 -20 -20
-20 -20 -15 -19 -20 -19 -20 -15 7 12 -7 -20 -18 -16 -2 5 9 5 -6 4 13 8 2 -5 -20 -20 -20 -20 -20 -20 -20 -20 -20 -20 -20 -20 -20 -20 -20 -20 -20 -20 -20
-20 -20 -20 1 -20 -20 -20 -20 -19 -5 -8 -3 -7 -1 10 12 11 12 10 -5 -20 -20 -20 -20 -20 -20 -20 -20 -20 -20 -20 -20 -20 -20 -20 -20 -20 -20 -20 -20 -20 -20 -20
3 23 22 18 -10 -18 -13 16 20 22 21 20 16 13 13 11 0 -6 0 -13 -20 -20 -20 -20 -20 -20 -20 -20 -20 -20 -20 -20 -20 -20 -20 -20 -20 -20 -20 -20 -20 -20 -20
33 -7 1 16 20 19 18 17 11 6 6 7 9 6 -0 4 4 6 9 8 6 -2 -17 -20 -12 -9 -17 -18 -20 -20 -20 -20 -20 -20 -20 -20 -20 -20 -20 -20 -20 -20 -20
-7 14 11 15 15 14 12 12 10 1 -3 2 3 1 4 5 6 6 8 10 9 8 9 4 -7 -17 -20 -20 -20 -20 -20 -20 -20 -20 -20 -20 -20 -20 -20 -20 -20 -20 -20
16 18 17 11 2 -18 -18 -20 -18 -9 1 4 1 -2 -3 -15 -11 -4 -0 -10 -19 -20 -18 -19 -20 -20 -20 -20 -20 -20 -20 -20 -20 -20 -20 -20 -20 -20 -20 -20 -20 -20 -20
4 -2 -1 -4 -15 -20 -20 -20 -20 -20 -20 -20 -20 -20 -14 -18 -20 -20 -20 -20 -20 -20 -20 -20 -20 -20 -20 -20 -20 -20 -20 -20 -20 -20 -20 -20 -20 -20 -20 -20 -20 -20 -20
2 2 2 -2 -12 -19 -20 -20 -20 -20 -20 -20 -20 -20 -20 -20 -20 -20 -20 -20 -20 -20 -20 -20 -20 -20 -20 -20 -20 -20 -20 -20 -20 -20 -20 -20 -20 -20 -20 -20 -20 -20 -20
-14 -18 -20 -20 -20 -20 -20 -20 -20 -20 -20 -20 -20 -20 -20 -20 -20 -20 -20 -20 -20 -20 -20 -20 -20 -20 -20 -20 -20 -20 -20 -20 -20 -20 -9 -20 -20 -20 -20 -20 -20 -20 -20
-18 -20 -20 -20 -20 -20 -20 -20 -20 -20 -20 -20 -20 -20 -20 -20 -20 -20 -20 -20 -20 -20 -20 -20 -20 -20 -20 -20 -20 -20 -20 -20 -20 -20 -20 -20 -20 -20 -20 -20 -20 -20 -20
-20 -20 -20 -20 -20 -20 -20 -20 -20 -20 -20 -20 -20 -20 -20 -20 -20 -20 -20 -20 -20 -20 -20 -20 -20 -20 -20 -20 -20 -20 -20 -20 -20 -20 -20 -20 -20 -20 -20 -20 -20 -20 -20

GFSGL_prec_radar_072.txt.gz
Reflectivity
-20 -20 -20 -20 -20 -20 -8 1 -20 -20 -18 -13 -2 22 28 33 29 15 9 27 17 4 21 -20 -20 -15 -20 -17 14 -20 -20 -20 -20 1 -18 -20 -20 -20 -20 -20 -20 -20 -20
7 -20 -20 -20 -9 9 0 -13 -20 -20 -20 -20 1 16 -18 -3 22 30 24 18 10 -0 9 -20 -20 -20 -17 -20 -20 -20 9 -1 -8 -20 -20 -20 -20 -20 -20 -20 -20 -20 -20
15 -15 -3 6 -20 -20 -20 -20 -20 -17 -16 -6 -16 26 -20 -20 8 20 13 16 0 25 18 -1 -10 16 -20 -15 -17 -18 16 6 8 -20 -19 -20 -20 -20 -20 -20 -20 -20 -20
-18 -9 -20 -20 -20 3 -20 -20 -20 -16 14 32 13 8 20 -20 -20 -7 -6 -9 -3 24 25 11 22 12 -19 -20 -20 -19 20 -9 -12 -20 -20 -20 -20 -20 -20 -20 -20 -20 -20
-20 -20 -20 -20 -20 -20 -20 -20 -20 -20 -17 -20 -17 -14 28 -20 -11 -15 -20 -17 11 18 26 20 4 0 10 16 -6 2 18 0 -20 -20 -20 -20 -20 -20 -20 -20 -20 -20 -20
-20 -20 -20 -20 -20 -20 -19 10 -20 -20 -20 -20 -20 -10 14 -20 8 19 4 23 1 15 3 16 0 10 12 4 -13 19 3 -20 -20 -20 -20 -20 -20 -20 -20 -20 -20 -20 -20
-20 -20 -20 -20 -20 -20 -20 -17 -20 -20 -20 -18 -11 -17 -5 26 6 -2 14 17 25 8 23 -2 13 -12 13 20 8 8 -20 -20 -20 -20 -20 -20 -20 -20 -20 -20 -20 -20 -20
-20 -20 -20 -20 -20 -20 -20 -20 -20 8 25 19 19 19 23 20 15 12 15 6 15 16 10 -18 -10 -7 10 15 -13 -20 -20 -20 -20 -20 -20 -20 -20 -20 -20 -20 -20 -12 -16
-20 -20 -20 -20 -16 -20 -20 -16 16 9 5 -18 7 11 4 5 11 29 18 0 16 8 -18 -2 -2 10 19 -9 -20 -20 -20 -20 -20 -20 -20 -20 -20 -20 -20 -20 -13 -20 -20
-20 -20 -20 -20 -20 -20 3 16 14 7 4 10 7 11 24 11 29 20 14 -1 9 7 -1 3 14 -8 -20 -20 -20 -20 -20 -20 -20 -20 -18 -7 -1 -7 -8 -4 -16 1 -20
-20 -20 -20 -20 -8 -4 -18 -13 0 1 14 17 18 18 16 29 16 17 14 -4 -20 -20 -20 -20 -20 -20 -20 -20 -20 -20 -20 -20 -12 6 -8 -1 -4 -4 4 0 -19 -20 -20
-15 8 13 11 -15 -14 -20 -4 3 14 24 17 24 23 19 13 19 16 12 12 5 -20 -20 -20 -20 -20 -20 -18 -20 -20 -15 7 -14 -20 -20 -20 -20 -19 -16 -19 -20 -20 -20
-11 -7 -19 -20 -12 -4 14 16 12 17 18 18 20 8 10 9 -6 11 6 5 -17 -20 -20 -20 -20 -20 -20 -18 -15 -1 -6 -20 -10 -19 -20 -20 -20 -20 -20 -20 -20 -20 -20
-20 -20 -2 15 11 9 -5 12 21 20 21 16 13 12 -10 -20 -20 -20 -14 -20 -20 -19 -7 -7 1 0 -6 -9 -18 -20 -20 -20 -20 -20 -20 -20 -20 -20 -20 -20 -20 -20 -20
-10 -20 -17 -20 -5 -12 -0 18 20 21 8 -19 -20 -20 -20 -20 -20 -19 -20 -13 4 10 10 5 -1 -10 -20 -20 -20 -19 -20 -20 -20 -20 -20 -20 -20 -20 -20 -20 -20 -20 -20
-20 -20 -20 2 21 25 20 22 21 14 12 6 -4 -2 -14 9 7 14 16 13 3 2 -1 -18 -20 -20 -20 -20 -20 -20 -19 -20 -12 -4 -8 -19 -20 -20 -20 -20 -20 -20 -20
-20 -20 -20 -20 -1 -8 3 5 -18 1 -0 9 20 22 20 19 15 8 10 3 -18 -20 -20 -20 -20 -20 -20 -18 -15 -7 -11 -3 -2 -11 -20 -20 -20 -20 -20 -20 -20 -20 -20
-20 3 -4 21 32 33 24 20 17 17 15 15 11 6 -4 4 9 3 -10 -16 -9 -7 -12 -18 -20 -20 -20 -20 -20 -20 -20 -20 -18 -20 -20 -20 -20 -20 -20 -20 -20 -20 -20
3 0 4 15 18 17 15 14 13 5 -1 -1 2 11 14 12 14 11 8 5 3 -4 -4 -1 1 -2 -14 -20 -20 -20 -19 -16 -10 -16 -20 -20 -20 -20 -20 -20 -20 -20 -20
14 17 13 16 20 20 14 -6 -16 -15 -9 -5 -2 -2 -5 -5 -0 4 4 4 4 5 6 6 4 -2 -3 -5 -7 -6 -13 -6 -13 -20 -20 -20 -20 -20 -20 -20 -20 -20 -20
16 15 13 13 6 4 6 3 -0 -2 2 6 7 7 6 4 5 3 -3 -3 -3 -14 -10 -1 -1 -8 -11 -15 -20 -20 -20 -20 -20 -20 -20 -20 -20 -20 -20 -20 -20 -20 -20
8 10 11 9 7 6 7 6 2 -3 -14 -17 -14 -11 -10 -10 -13 -20 -20 -20 -20 -20 -20 -20 -20 -20 -20 -20 -20 -20 -20 -20 -20 -20 -20 -20 -20 -20 -20 -20 -20 -20 -20
-2 -7 -11 -16 -16 -14 -20 -20 -20 -20 -20 -20 -20 -20 -20 -20 -20 -20 -20 -20 -20 -20 -20 -20 -20 -20 -20 -20 -20 -20 -20 -20 -20 -20 -20 -20 -20 -20 -20 -20 -20 -20 -20
2 1 -4 -17 -20 -20 -20 -20 -20 -20 -20 -20 -20 -20 -20 -20 -20 -20 -20 -20 -20 -20 -20 -20 -20 -20 -20 -20 -20 -20 -20 -20 -20 -20 -20 -20 -20 -20 -20 -20 -20 -20 -20
-20 -20 -20 -20 -20 -20 -20 -20 -20 -20 -20 -20 -20 -20 -20 -20 -20 -20 -20 -20 -20 -20 -20 -20 -20 -20 -20 -20 -20 -20 -20 -20 -20 -20 -20 -20 -20 -20 -20 -20 -20 -20 -20
-20 -20 -20 -20 -20 -20 -20 -20 -20 -20 -20 -20 -20 -20 -20 -20 -20 -20 -20 -20 -20 -20 -20 -20 -20 -20 -20 -20 -20 -20 -20 -20 -20 -20 -20 -20 -20 -20 -20 -20 -20 -20 -20

GFSGL_prec_radar_075.txt.gz
Reflectivity
-20 -20 -20 -20 -20 -20 -20 -18 -18 -20 -20 -20 -20 -19 -20 -20 -9 -4 -12 -8 -9 20 15 24 4 -4 4 -5 1 -7 -1 -20 -20 -20 -20 -2 -19 -20 -20 -20 -20 -20 -20
31 4 -10 -20 -20 -20 0 -19 -20 -20 -20 -20 -20 -20 -20 -20 4 33 21 7 25 28 25 33 28 23 9 6 -3 -20 -17 -20 -20 -20 -7 11 -3 -20 -20 -20 -20 -20 -20
-20 -20 13 -20 -20 -20 -20 -20 -20 -20 -20 -20 -20 -20 -12 -7 -11 17 16 2 35 31 28 28 21 24 28 -10 -11 1 -3 -20 -20 -8 -8 18 -19 -20 -20 -20 -20 -20 -20
-20 -20 -20 -20 -5 -20 -20 -20 -20 -20 -20 -20 -20 -20 7 8 -20 -20 -1 -20 -9 16 10 20 12 20 -2 21 -12 -16 -8 -20 -3 -18 -17 2 -16 -20 -20 -20 -20 -20 -20
-20 -20 -20 -20 -20 -20 -20 -20 -20 -20 -20 -20 -20 -20 3 33 8 -17 21 2 -8 -20 -20 -20 8 12 25 25 11 -16 -20 -20 -3 -20 -12 -19 -20 -20 -20 -20 -20 -20 -20
-20 -20 -20 -20 -20 -20 -20 -20 -20 -20 -20 5 -20 -20 -20 18 -5 -14 20 -19 7 2 -20 -2 1 23 25 23 20 -5 -5 -20 -18 -3 -20 -20 -20 -20 -20 -20 -20 -20 -20
-20 -20 -20 -20 -20 -20 -20 -20 -20 -8 -19 -4 -18 -20 -20 -20 -20 1 -10 21 -11 -5 12 8 -13 -5 29 -6 14 -14 -7 -1 -2 -9 -17 -20 -20 -20 -20 -20 -20 -20 -20
-20 -20 -20 -20 -20 -20 -20 -20 -20 9 -9 -20 5 -17 -20 -19 -3 0 16 8 10 -3 14 21 17 17 18 11 -2 -16 -12 -9 -6 -10 -20 -20 -20 -20 -20 -20 -20 -20 -20
-20 -20 -20 -20 -20 -20 -20 -20 -20 -20 -15 -1 15 -18 9 14 22 15 10 -7 -2 -10 14 34 16 16 20 16 1 1 -11 -13 2 -20 -20 -20 -20 -20 -20 -20 -20 -20 -20
-20 -20 -20 -20 -20 -20 -20 -20 -20 -20 -10 -5 3 13 19 14 20 10 4 0 14 27 30 16 22 12 15 8 2 -10 -17 -20 -20 -20 -20 -20 -20 -20 -20 -20 -20 -20 -20
-15 -20 -20 -20 -20 -20 11 -15 -8 7 4 6 12 16 6 7 8 16 16 12 20 35 14 10 8 15 10 9 -0 -20 -20 -14 -19 -20 -20 -19 -9 -16 -6 -5 -19 -20 -20
-3 -20 -20 -20 -1 -15 7 13 -13 -20 -20 -14 -9 4 4 12 26 22 25 29 36 4 1 8 2 15 -12 -20 -13 6 6 -7 -20 -19 -14 -20 -19 -4 -12 -18 -16 -20 -20
-18 -20 -20 -19 -19 -2 -8 -16 -20 -14 -8 -10 8 16 21 19 14 25 30 20 15 8 -10 8 1 -20 -20 1 -5 -19 -19 -13 -3 -20 -20 -20 -20 -20 -20 -20 -20 -20 -20
3 -14 -17 -20 -9 -7 -19 -10 1 6 0 -5 15 17 29 36 32 22 14 13 10 7 -4 -20 -20 -12 -14 -20 -18 -0 -6 -20 -20 -20 -20 -20 -20 -20 -20 -20 -20 -20 -20
25 3 -20 -20 -11 -20 -18 -8 -6 6 17 19 23 23 22 21 22 18 12 1 -11 -9 -10 -2 -0 2 10 2 -14 -20 -16 -10 -20 -20 -20 -20 -20 -20 -20 -20 -20 -20 -20
-19 -20 -16 -5 -20 -16 -12 -2 8 4 14 25 31 24 23 21 17 20 20 15 13 10 8 4 -8 -11 -14 -19 -20 -20 -20 -20 -20 -20 -20 -20 -20 -20 -20 -20 -20 -20 -20
3 14 11 3 -6 -20 -20 -20 -5 22 19 22 23 23 21 21 21 16 9 6 8 9 -1 -20 -20 -20 -20 -20 -20 -20 -20 -20 -20 -20 -20 -20 -20 -20 -20 -20 -20 -20 -20
28 25 24 18 23 -13 -5 -3 7 5 11 18 18 16 10 1 -1 6 1 -17 -20 -20 -20 -20 -20 -20 -20 -20 -20 -20 -20 -20 -20 -6 -16 -20 -20 -20 -20 -20 -20 -20 -20
39 38 34 17 19 18 12 4 3 6 9 2 -2 3 4 0 -4 -9 -20 -12 -20 -20 -20 -20 -11 -20 -12 -20 -2 -4 -11 -4 -7 -3 -2 -20 -20 -11 -20 -20 -18 -20 -20
9 13 12 12 13 9 13 12 9 1 -2 -15 -17 -17 -19 -20 -20 -20 -20 -19 -10 -2 0 -2 -0 -0 -2 -13 -2 -2 -3 0 -1 -1 -3 -0 1 2 0 -0 1 2 -1
24 26 17 21 20 15 4 -4 -15 -19 -17 -20 -20 -20 -20 -20 -3 -2 -1 1 -0 -1 -2 -2 -10 -6 -2 -1 -1 0 0 1 -1 -1 -1 -1 2 2 -0 1 3 3 2
17 18 14 5 5 -4 -11 -10 -14 -19 -20 -20 -3 -20 -20 -19 -20 -20 -20 -20 -2 -6 -1 -7 -3 -2 -2 -2 -1 -0 -1 -2 -9 -2 1 0 0 2 3 4 3 3 4
4 5 4 -5 -7 -18 -20 -20 -20 -20 -20 -20 -20 -20 -20 -20 -20 -14 -1 -2 -7 -20 -20 -20 -20 -20 -20 -20 -20 -20 -12 -9 -1 1 2 2 2 3 4 3 2 3 3
3 3 -12 -9 -5 -7 -12 -18 -20 -20 -20 -20 -20 -20 -20 -20 -20 -20 -20 -20 -20 -20 -20 -20 -20 -20 -20 -20 -20 -20 -20 -7 -0 1 2 3 -0 -3 1 1 1 -0 1
-8 -12 -11 -20 -20 -20 -20 -20 -20 -20 -20 -20 -20 -1 -3 -20 -20 -20 -20 -20 -20 -20 -20 -20 -20 -20 -20 -20 -20 -20 -20 -20 -10 -20 -18 -3 -4 -20 -4 -1 -3 -1 -1
-20 -20 -20 -20 -20 -20 -20 -20 -20 -20 -20 -20 -20 -20 -20 -20 -20 -20 -20 -20 -20 -20 -20 -20 -20 -20 -20 -20 -20 -20 -20 -20 -20 -20 -12 -7 -7 -10 -3 -2 -18 -0 -3

GFSGL_prec_radar_078.txt.gz
Reflectivity
-20 -20 -20 -20 -20 -20 -20 -20 -20 -20 -20 -20 -20 -20 -20 -20 -20 -20 -20 -20 -20 -15 3 5 8 -20 -17 20 11 27 24 4 -3 15 -8 -20 -20 -14 -20 -18 -19 -20 -20
-20 -20 -20 -20 -20 -20 -20 -20 -20 -20 -20 -20 -20 -20 -20 -20 -20 -20 -20 -19 16 11 21 19 8 21 25 35 32 23 22 8 1 -19 -20 -20 -20 -20 -18 -1 -18 -20 -20
-20 7 -16 -20 -20 -20 -20 -20 -20 -20 -20 -20 -20 -20 -20 -20 -20 -20 -20 -20 -19 -19 -13 -20 -4 29 33 38 25 34 32 -3 -16 -20 -20 -20 -20 -8 15 1 -18 -20 -20
-20 -20 -20 -20 -20 -20 -20 -20 -20 -20 -20 -20 -20 -20 -20 -20 -20 -20 -3 -8 -19 -20 -20 -20 7 31 33 27 16 2 9 -12 29 8 -20 -20 -19 -17 -18 3 -19 -20 -20
-20 -20 -20 -20 -20 -20 -20 -20 -20 -20 -20 -20 -20 -20 -20 -20 -20 -20 20 31 21 -20 -20 -20 -20 -4 -2 8 9 22 -8 16 35 -7 -20 -20 -20 -20 -11 -11 -18 -20 -20
-20 -20 -20 -20 -20 -20 -20 -20 -20 -20 -20 -20 -20 -20 -20 -20 -20 -20 -20 -6 -9 -20 -20 -20 9 20 18 12 25 21 23 22 11 -18 -20 -20 -20 -5 -17 -20 -20 -20 -20
-20 -20 -20 -20 -20 -20 -20 -20 -20 -14 -20 -20 -20 -20 -20 -20 -20 -10 5 -20 -20 -20 -20 -11 13 15 23 6 20 23 8 19 19 -14 -17 -16 -20 -19 -19 -20 -20 -20 -20
-20 -20 -20 -20 -20 -20 -20 -20 -20 -20 -20 2 15 -20 -20 -20 3 11 -1 16 -6 -16 -2 17 24 18 11 7 1 12 24 21 13 7 -11 -20 -19 -18 -20 -20 -20 -20 -20
-20 -20 -20 -20 -20 -20 -20 -20 -20 -20 -11 -5 7 21 15 -20 14 15 17 4 -0 7 14 21 11 19 31 28 37 35 22 14 14 7 -6 -15 -20 -20 -20 -20 -20 -20 -20
-12 -5 -20 -20 -20 -20 -20 -20 -20 -13 -20 21 -19 -18 12 19 23 17 17 -2 -1 12 4 14 24 18 25 36 30 21 10 -3 -17 -17 -19 -20 -19 -20 -20 -20 -20 -13 -20
-20 -20 -20 -20 -20 -20 -20 -20 -20 -20 -20 2 4 8 7 13 9 18 17 12 2 -7 14 19 22 30 28 27 25 2 -3 -15 -20 -18 -14 4 -20 -20 -20 -20 -20 -20 -20
-20 -19 -15 -6 -5 -19 -20 -20 -20 -20 -17 -3 -10 -13 -17 -6 22 21 17 19 27 15 20 22 24 26 23 18 5 -3 -14 -19 -17 5 -8 -19 -13 -20 -20 -20 -20 -20 -20
-9 -20 -19 -20 -20 -12 6 26 6 26 16 -9 -20 -20 -16 -3 10 22 17 10 17 16 15 19 25 26 10 1 -16 -17 -20 8 10 2 -12 -20 -20 -20 -20 -20 -20 -20 -20
5 9 -19 -20 25 1 -3 -1 -8 -0 -20 -13 -13 -20 -9 8 10 14 15 15 17 23 25 27 25 11 -11 -13 -6 13 9 -14 -19 -20 -20 -20 -20 -20 -20 -20 -20 -20 -20
20 15 -2 -16 -5 -8 -9 -8 9 10 9 -6 -7 3 -2 1 14 18 18 23 23 19 20 20 19 13 9 3 -7 -20 -12 -18 -20 -20 -20 -20 -20 -20 -20 -20 -20 -20 -20
3 -20 -4 -2 4 2 11 30 18 16 1 10 15 15 14 15 19 22 21 19 15 17 15 14 13 4 2 -2 -12 -20 -20 -20 -20 -11 -1 0 -1 -2 -10 -20 -20 -20 -20
26 18 2 13 -20 -17 -3 8 23 22 22 10 10 16 18 16 11 10 14 14 13 6 9 14 11 2 -9 -10 -20 -20 -19 -2 -20 -1 0 2 2 2 0 1 -1 -1 -20
36 32 32 38 27 26 34 35 29 23 6 15 17 11 2 -1 0 4 11 16 16 15 12 7 4 1 -4 -6 -6 -2 -2 1 2 1 1 3 3 3 3 2 -19 -20 -20
28 34 25 29 29 27 25 22 1 2 5 11 15 12 7 4 0 -3 5 6 -1 -1 -3 -3 1 -2 1 -2 5 2 3 3 2 3 3 3 -3 5 -8 2 -9 -20 -11
16 24 26 25 26 25 24 24 19 13 14 17 17 13 10 10 9 5 3 4 2 1 0 -1 -1 1 2 1 3 4 5 -9 -14 -19 -20 -18 -13 -18 -20 -7 0 5 3
18 16 21 21 20 22 21 20 17 13 10 10 13 11 4 2 2 2 1 2 2 -0 1 1 2 3 2 1 1 3 2 3 -6 2 -19 -7 -20 6 5 -20 -20 -20 -20
11 17 22 23 22 19 17 15 11 8 3 1 0 -5 -5 -1 -0 0 1 1 3 1 1 1 1 1 0 1 1 2 1 1 2 1 1 -17 -20 -20 -20 -12 -13 -13 -6
16 16 17 16 15 14 13 11 9 -1 -1 -0 -1 -0 -1 2 2 0 2 3 1 1 -0 -2 -1 -10 -12 -1 -1 1 3 2 1 2 4 4 1 -5 -18 6 -16 -2 -14
3 8 7 3 -4 -4 -1 -1 -8 -17 -3 1 0 0 -1 0 3 0 1 1 -1 1 1 -1 -7 -20 -20 -19 -1 -1 -4 -4 -1 -1 1 4 3 3 4 5 1 -20 -20
-20 -20 -20 -20 -20 -8 -20 -20 -18 -8 -4 -2 -1 1 -1 -0 -0 2 2 0 -4 -3 -4 -17 -2 -5 -6 -20 -20 -20 -7 -20 -13 -20 -4 0 2 2 2 3 3 4 -14
-20 -20 -20 -20 -20 -20 -20 -20 -20 -20 -4 -2 0 1 1 -1 -1 -1 -4 -10 -20 -20 -20 -10 -11 -20 -20 -20 -20 -20 -20 -20 -20 -20 -13 1 2 2 3 4 2 5 2

GFSGL_prec_radar_081.txt.gz
Reflectivity
-20 -20 -20 -13 1 4 9 9 6 9 -20 -20 -20 -20 -20 -20 -20 -20 -20 -20 12 -11 -20 19 16 -4 -15 -6 -5 -8 -19 -20 14 20 17 -12 -10 -9 -20 -20 -20 -20 -20
-20 -20 -20 -20 -19 -0 -5 -1 2 -1 -20 -20 -20 -20 -20 -20 -20 -20 -20 -20 -3 -1 -20 17 -19 -20 -3 -8 -20 -20 17 27 27 30 16 -4 -20 -20 -20 -20 -20 -20 -20
-20 -20 -20 -20 -20 -20 -20 -20 1 0 3 -15 -20 -20 -20 -20 -20 -20 -20 -20 -20 -20 -20 7 -20 1 -16 -20 -20 -4 25 33 34 31 28 1 -17 -19 -20 -20 -20 -19 11
-20 -20 -20 -20 -20 -20 -20 -20 -8 -17 -1 2 -18 -15 -9 -9 -7 -20 -12 -20 -20 -20 -3 -18 -20 -8 -14 -20 -20 -10 12 16 34 30 31 -4 21 7 -9 -20 -20 13 -10
-20 -20 -20 -20 -20 -20 -20 -20 -20 -20 -20 -20 -20 -20 -17 -4 -9 -0 -20 -20 -20 3 -9 -0 -7 14 29 -13 5 -20 -20 3 17 16 24 13 26 25 20 3 -12 -10 -20
-20 -20 -20 -20 -20 -20 -20 -20 -20 -20 -20 -20 -20 -20 -20 -20 -20 -20 -20 -20 -20 4 -20 -20 -13 23 19 16 -13 8 26 9 9 20 34 26 3 25 2 -11 -8 -17 -20
-20 -20 -20 -20 -20 -20 -20 -20 -20 -20 -20 -20 -20 -20 -20 -20 -20 -20 -20 -20 -14 -10 -20 -20 -19 -20 -3 -19 11 14 24 20 15 7 17 30 33 21 17 15 -7 -20 -20
-20 -20 -20 -20 -20 -20 -20 -20 -20 -20 -20 -20 -20 -20 -20 -20 -13 -20 -20 -20 -20 -20 -19 -20 -20 -20 -11 -20 -5 31 21 8 13 18 33 31 39 25 16 0 -19 -20 -20
-20 -20 -20 -20 -20 -20 -20 -20 -20 -20 -20 -20 -6 -16 -12 -14 -13 2 1 -20 -20 -20 -20 -18 13 19 25 15 7 10 19 19 23 25 34 34 32 23 12 -10 -20 -20 -20
-13 -9 -18 -17 -20 -20 -10 -20 -20 -20 -20 -19 -3 -20 6 -20 -5 7 10 -13 6 17 20 14 27 16 33 32 19 10 12 25 28 24 22 28 22 4 -12 -20 -10 -11 -20
-20 -17 -16 -4 -5 12 19 -7 -20 -20 -20 -20 -20 -18 -4 -8 5 22 18 15 15 15 21 22 22 34 32 27 19 13 18 26 27 25 26 20 10 -18 -15 7 1 -14 -20
-5 -6 -20 -0 -20 -20 -20 -15 -18 -20 -20 -20 -9 -8 1 -4 20 15 16 18 25 12 15 17 21 25 20 19 21 21 29 27 31 29 23 13 9 2 -16 -16 -17 -19 -17
8 -18 -15 -20 6 26 24 7 1 -7 -9 -12 13 14 7 9 7 14 5 10 14 12 4 21 23 20 18 15 16 20 24 25 20 16 10 10 8 -4 -3 -8 -20 -20 -20
2 -5 -11 -18 -15 -20 13 17 16 19 24 30 11 29 32 17 -20 -20 -10 -10 1 6 14 10 11 16 23 25 28 27 24 15 3 6 -1 1 -10 -9 -20 -20 -20 -20 -19
11 17 14 17 16 23 20 21 26 35 30 28 22 10 10 9 10 17 13 8 8 14 16 7 14 16 18 20 19 17 13 13 9 1 8 6 -12 -15 -20 -18 -17 -2 0
18 19 30 30 20 25 23 23 30 23 34 28 14 15 23 23 24 22 11 8 12 16 17 18 18 17 16 14 14 14 13 12 12 10 -10 -5 -3 -3 1 -2 -19 -3 1
22 27 16 18 18 21 28 23 7 16 21 29 28 26 31 33 31 29 23 20 16 6 3 4 7 11 6 8 10 7 4 -7 -20 -9 2 3 4 4 2 1 1 3 5
25 30 36 35 40 29 21 21 22 26 24 28 27 27 28 28 25 23 21 17 15 -3 -2 -1 -0 -0 -7 -4 -18 -9 -3 -2 6 -1 -0 2 3 3 4 3 3 8 8
10 11 23 25 29 27 28 27 26 23 21 22 22 22 22 19 20 21 21 19 14 4 -12 -3 2 3 -2 0 1 4 -1 4 -5 6 7 8 9 6 5 5 -4 -5 3
11 16 15 16 21 22 22 20 17 18 22 22 22 22 23 21 19 19 16 9 3 2 5 -3 -4 -7 0 -1 4 7 4 -0 -1 0 -1 2 4 5 6 8 7 8 7
3 4 9 14 19 21 20 18 20 18 18 19 18 17 14 11 10 9 8 3 -1 -1 -2 3 1 1 -0 -6 -4 -1 -2 0 -0 -1 1 2 3 2 4 5 7 9 10
8 5 2 2 2 5 7 10 14 15 15 14 13 11 7 3 -1 -2 1 2 3 -1 -1 -1 1 -2 -2 -2 -1 0 -1 -1 -0 -1 -1 -3 -2 0 2 4 6 8 6
-2 -2 1 -5 -6 -10 4 8 9 8 8 6 5 -0 -1 -0 2 1 2 1 -0 1 -2 -4 -3 -19 -5 -5 -3 -0 -1 -1 -0 -1 -0 -1 -1 0 2 3 4 7 -1
2 7 8 6 -1 -1 -11 -17 -20 -17 -3 -3 -3 -4 -1 0 1 -0 -1 0 -1 0 -1 -3 -4 -12 -20 -19 -3 -4 -7 -18 -6 -5 -3 -0 -1 -2 1 2 3 5 7
-20 -20 -20 -20 -20 -7 -20 -20 -3 -4 -2 -0 0 -0 -0 -1 -1 2 -1 -2 -20 -12 -19 -17 -4 -16 -8 -20 -20 -19 -6 -20 -20 -20 -19 -4 -1 1 1 2 5 5 10
-20 -20 -20 -20 -20 -3 -3 -4 -1 -2 -1 1 1 0 0 -1 -3 -0 -5 -13 -20 -20 -6 -4 -5 -14 -20 -20 -8 -20 -20 -20 -20 -20 -20 -3 -2 0 3 5 0 4 5

GFSGL_prec_radar_084.txt.gz
Reflectivity
-20 -20 -20 -19 2 -19 -20 -20 -20 -20 -20 -20 -20 -20 -20 -20 -16 -13 -20 -19 -12 -19 -20 -20 -20 18 24 13 8 20 22 -4 11 -10 -20 -16 -15 1 -15 -20 -20 -20 -20
-20 -20 -20 -20 -20 -8 -20 -20 -20 -20 -20 -20 -20 -20 -20 -20 -20 -20 -20 -20 -20 -20 -8 13 -20 4 13 -20 -3 15 -4 -7 7 -6 10 22 26 21 18 -16 -20 -20 -20
-20 -20 -20 -20 -20 -20 -9 4 -20 -20 -20 -20 -20 -20 -20 -20 -20 -20 -20 -20 -20 -20 -20 -20 -20 -18 -20 -11 -1 15 11 -13 -20 -6 7 4 10 13 12 13 6 -19 -20
-20 -20 -20 -20 -20 -20 -20 -20 -2 -10 -13 -20 -20 -20 -20 -20 -20 -20 -20 -20 -20 -20 -20 -20 -20 9 -0 -16 2 -17 -4 32 -11 -15 9 -3 -13 1 14 17 9 12 18
-20 -20 -20 -20 -20 -20 -20 -20 -20 -17 -20 -20 -20 -20 -20 -20 -20 -20 -20 -20 -20 -20 -16 -20 -20 -20 -20 -20 8 18 14 21 15 21 17 16 21 -11 -3 -4 33 24 29
-20 -20 -20 -20 -20 -20 -20 -20 -20 -20 -20 -20 -20 -20 -20 -20 -20 -20 -20 -20 -20 -20 -20 -20 -20 -20 -20 5 -20 7 13 -2 22 3 -20 -17 32 33 10 18 26 17 33
-20 -20 -20 -20 -20 -20 -20 -20 -20 -15 -19 -20 -20 -20 -20 -20 -20 -15 -20 -20 -20 -20 -20 -20 -20 -20 -20 -16 -20 11 19 17 26 -3 -0 20 37 23 19 38 28 37 36
-20 -20 -20 -20 -20 -20 -20 -20 -20 -20 -20 -20 -19 -20 -20 -20 -20 -20 -20 -16 -17 -20 -20 -20 -20 -20 -20 -10 -11 -14 29 13 15 7 16 25 9 18 18 24 30 36 31
-20 -20 -20 -20 -20 -20 -20 -20 -20 -20 -20 -20 21 5 -20 -20 -20 -20 -20 -10 1 -20 -20 -20 -20 -20 12 16 4 8 25 27 39 33 28 29 37 23 23 32 29 27 21
-20 -17 -20 -20 -20 -20 -20 -20 -20 -20 -20 -20 -11 -20 -8 -20 4 -6 -19 13 15 18 11 13 22 18 22 17 13 8 14 17 17 21 24 28 27 13 15 21 29 25 25
-20 -10 -6 -20 -20 -20 -20 -13 -4 -11 -17 -6 -3 -4 21 23 16 19 15 -3 -20 5 16 15 23 32 21 29 31 19 19 24 21 23 20 16 18 25 21 21 24 18 7
-0 8 -2 6 6 -20 -20 -20 -20 -20 -20 -5 -19 -4 16 14 21 21 18 15 25 19 25 22 19 30 19 17 11 13 15 20 14 21 18 17 15 19 20 18 15 15 15
-19 -13 1 2 20 -20 27 21 -20 -20 -20 13 14 10 16 17 20 29 29 24 15 18 18 23 25 23 15 16 22 14 15 12 -2 12 20 21 19 16 11 10 8 12 9
-19 23 0 12 24 21 21 17 22 -8 -5 5 32 33 22 27 31 20 29 33 29 31 36 32 31 23 18 15 21 20 14 8 10 13 14 15 15 14 12 11 8 0 -20
-19 13 18 20 8 -0 14 23 25 33 28 18 17 29 31 28 41 34 36 31 32 28 24 24 24 18 22 21 21 22 21 19 16 16 17 15 13 9 1 -17 -20 -20 -20
-14 19 19 14 15 16 16 20 27 34 27 28 24 19 26 22 33 35 34 30 25 25 26 26 25 28 28 27 22 19 15 14 12 9 5 5 4 2 -2 -9 -20 -20 -5
-20 7 18 26 28 32 33 28 21 23 28 30 28 27 38 41 36 26 26 26 24 23 24 24 22 24 22 19 18 16 14 11 9 2 3 -1 -18 -20 -20 -20 -20 -20 -13
-5 15 17 26 29 28 21 18 24 27 27 37 39 24 24 24 19 19 19 18 19 19 18 14 15 17 15 10 2 -10 -14 -10 -6 -11 -20 -20 -20 -20 -20 -20 -20 -18 -9
0 5 15 18 19 23 24 25 20 22 23 24 22 17 18 19 19 19 18 17 16 14 13 12 13 12 11 6 -0 -3 -8 -20 -20 -20 -20 -20 -20 -20 -20 -20 -20 -20 -20
1 10 0 9 7 -0 12 15 21 23 21 19 17 18 18 16 18 18 17 15 12 8 7 6 3 -12 -10 -17 -20 -20 -20 -20 -20 -20 -20 -20 -20 -20 -20 -20 -20 -20 -5
-15 -1 9 12 8 10 11 17 17 16 14 6 12 12 10 9 9 10 10 8 6 -1 -13 -18 -20 -20 -20 -20 -20 -20 -20 -20 -20 -20 -20 -20 -20 -20 -20 -20 -20 -19 1
-19 -16 -16 -15 -12 -7 -0 2 6 7 6 5 6 5 6 6 8 9 5 5 4 -4 -17 -20 -20 -20 -20 -20 -20 -20 -20 -20 -20 -20 -20 -20 -20 -20 -20 -20 -20 -20 -20
-14 -13 -12 -17 -20 -20 -19 -12 -10 -13 -16 -17 -15 -15 -16 -16 -13 -15 -13 -4 -17 -20 -20 -20 -20 -20 -20 -20 -20 -20 -20 -20 -20 -20 -20 -20 -20 -20 -20 -20 -20 -20 -20
-7 -5 -20 -20 -19 -17 -12 -6 -12 -18 -15 -11 -20 -19 -17 -3 -11 -20 -20 -20 -20 -20 -20 -20 -20 -20 -20 -20 -20 -20 -20 -20 -20 -20 -20 -20 -20 -20 -20 -20 -20 -20 -20
-20 -20 -20 -18 -19 -20 -20 -20 -20 -20 -20 -20 -20 -20 -6 -20 -14 -20 -14 -20 -20 -20 -20 -20 -20 -20 -20 -20 -20 -20 -20 -20 -20 -20 -20 -20 -20 -20 -20 -20 -18 3 -8
-20 -20 -19 -20 -20 -20 -20 -20 -20 -20 -20 -20 -20 -20 -20 -20 -20 -20 -20 -20 -20 -20 -20 -20 -20 -20 -20 -20 -20 -20 -20 -20 -20 -20 -20 -20 -20 -20 -15 -13 -20 -20 -20

GFSGL_prec_radar_087.txt.gz
Reflectivity
-20 -19 -7 -4 -20 -20 -20 -20 -20 -20 -20 -20 -20 -20 -20 -10 0 -5 -10 -20 -20 -20 10 -5 -10 -7 -19 0 -20 -18 20 16 19 -10 -20 -20 -20 -20 -18 8 13 21 23
-20 -20 -20 -2 -20 -20 -20 -20 -20 -20 -20 -20 -20 -20 -20 -20 -20 -20 -16 -1 3 1 -1 10 -20 -20 -20 -20 -20 -20 -20 -20 13 20 -17 -20 -20 -20 -20 17 15 23 22
-20 -20 -20 -20 -20 -1 -20 -20 -20 -20 -20 -20 -20 -20 -20 -20 -20 -20 -20 -20 -20 -20 -20 -20 -20 -20 -20 -20 -20 -20 -20 -19 1 12 10 -15 -20 -20 -20 6 -9 -20 17
-20 -20 -20 -20 -20 -20 2 -11 -20 -20 -20 -20 -20 -20 -20 -20 -20 -20 -20 -20 -20 -20 -20 -20 -20 -20 -20 -20 -20 -20 -20 -20 2 17 23 25 -5 -5 11 0 -15 7 -20
-20 -20 -20 -20 -20 -20 -20 -20 -20 -14 -20 -20 -20 -20 -20 -20 -20 -20 -20 -20 -20 -20 -20 -20 -20 -20 7 -17 -20 -20 -20 -20 21 6 12 17 -5 25 -13 21 -12 11 22
-20 -20 -20 -20 -20 -20 -20 -20 -20 -20 -20 -20 -20 -20 -20 -20 -20 -20 -20 -20 -20 -20 -20 -20 -20 -20 -20 -20 -20 -20 -19 -11 24 15 14 8 -15 -10 15 -20 -11 9 24
-20 -20 -20 -7 -20 -20 -20 -20 -20 -20 -20 -11 -20 -12 -20 -20 -20 -20 -20 -20 -20 -20 -20 -20 -20 -20 -20 -20 -20 -4 19 22 13 10 3 -7 21 0 15 -2 10 20 23
14 10 -20 -20 27 26 -20 -20 -20 -20 -20 -20 -20 -20 -12 -20 -20 -20 -20 -20 -20 -20 -20 -20 -20 -20 -20 -20 -18 21 14 16 15 1 13 30 11 21 7 26 30 34 29
-9 -2 29 -20 28 25 -3 -20 -20 -20 -20 -20 -20 -0 0 -20 -20 -14 -20 -6 2 -0 -20 -20 -19 -15 15 18 14 18 25 21 26 26 23 16 33 25 19 23 9 14 23
-20 -6 24 -6 24 -0 29 -9 -20 -20 -20 -20 -20 -19 20 -8 2 5 -8 14 10 21 12 10 21 14 19 18 11 -12 -9 -3 11 16 11 22 24 21 30 31 16 20 21
-20 -20 -20 -20 -2 23 9 -12 28 11 28 -18 -20 5 -6 8 6 17 18 10 1 10 -2 6 11 24 22 20 25 18 20 30 27 21 20 29 32 19 14 12 18 16 8
-20 -20 -20 -20 -20 23 4 22 24 20 5 -19 -19 18 13 14 8 14 15 20 23 16 14 24 32 35 23 18 18 21 26 29 35 23 17 17 21 16 22 21 17 12 -5
-20 -20 -20 -20 -20 -19 22 19 21 25 25 11 25 19 21 22 31 25 16 13 17 21 29 27 29 26 29 25 28 29 22 17 16 21 22 19 22 16 17 18 16 13 13
-20 -20 -20 -20 -20 -20 -19 16 19 19 22 22 22 18 18 21 8 -16 1 10 21 26 34 29 33 30 32 39 34 27 25 26 28 24 19 13 14 16 18 17 11 0 -2
-20 -20 -20 -20 -20 -20 -17 -8 10 29 28 18 22 11 26 35 25 28 26 21 19 25 28 31 31 35 35 38 36 33 34 33 26 21 15 7 5 5 5 2 -3 -11 -8
-20 -20 -20 -20 -20 -20 -11 12 23 31 21 24 26 22 30 32 37 37 30 22 26 28 25 25 29 32 32 33 33 29 24 18 13 5 -8 -9 -14 -18 -20 -20 -20 -20 -20
-20 -20 -17 -19 -20 -20 2 16 20 26 16 22 26 26 19 21 25 24 25 25 28 29 30 27 26 23 21 18 15 15 14 13 12 10 2 -1 -14 -20 -20 -20 -20 -20 -20
-11 7 -4 -3 -2 -19 -19 -3 9 19 17 24 35 33 26 24 24 26 24 27 26 24 20 16 12 10 8 11 13 12 13 10 6 4 -12 -20 -20 -20 -20 -20 -20 -20 -20
0 3 -8 -1 4 -5 -12 -8 1 12 19 20 19 17 16 7 2 10 15 18 18 18 16 11 9 7 6 2 -6 -16 -19 -20 -20 -20 -20 -20 -20 -20 -20 -20 -20 -20 -20
-4 -6 -15 -17 -16 -20 -16 -9 -16 -6 7 13 14 16 14 12 8 9 10 10 11 10 10 9 7 6 4 0 -4 -5 -20 -20 -20 -20 -20 -20 -20 -20 -20 -20 -20 -20 -20
1 -2 -14 -18 -19 -19 -20 -20 -20 -20 -6 3 5 2 -1 -11 -2 2 4 3 1 -2 -3 -7 -20 -20 -20 -20 -20 -20 -20 -20 -20 -20 -20 -20 -20 -20 -20 -20 -20 -20 -20
7 7 5 3 -7 -19 -18 -19 -20 -20 -20 -20 -13 1 2 -5 -10 -20 -20 -20 -20 -20 -20 -20 -20 -20 -20 -20 -20 -20 -20 -20 -20 -20 -20 -20 -20 -20 -20 -20 -20 -20 -20
10 10 5 -5 -17 -16 -20 -20 -20 -20 -20 -20 -20 -20 -20 -20 -20 -20 -20 -20 -20 -20 -20 -20 -20 -20 -20 -20 -20 -20 -20 -20 -20 -20 -20 -20 -20 -20 -20 -20 -20 -20 -20
13 11 9 3 -20 -20 -20 -20 -20 -20 -20 -20 -20 -20 -20 -20 -20 -20 -20 -20 -20 -20 -20 -20 -20 -20 -20 -20 -20 -20 -20 -20 -20 -20 -20 -20 -20 -20 -20 -20 -20 -20 -20
-20 -20 -20 -20 -20 -20 -20 -20 -20 -20 -20 -20 -20 -20 -20 -20 -20 -20 -20 -20 -20 -20 -20 -20 -20 -20 -20 -20 -20 -20 -20 -20 -20 -20 -20 -20 -20 -20 -20 -20 -20 -20 -20
-20 -20 -20 -20 -20 -20 -20 -20 -20 -20 -20 -20 -20 -20 -20 -20 -20 -20 -20 -20 -20 -20 -20 -20 -20 -20 -20 -20 -20 -20 -20 -20 -20 -20 -20 -20 -20 -20 -20 -20 -20 -20 -20

GFSGL_prec_radar_090.txt.gz
Reflectivity
-20 -20 -20 -20 -20 -20 -20 -20 -20 -20 -20 -20 -20 -20 -20 -20 -20 -20 -20 -20 -20 -20 -20 -1 -20 10 4 4 26 13 -15 -20 21 -12 -19 -18 11 5 -20 -1 -18 -20 -20
-20 -20 -20 -20 -20 -20 -20 -20 -20 -20 -20 -20 -20 -20 -20 -20 -20 -20 -20 -20 -20 -20 -20 -20 -20 -3 10 7 -20 -6 -19 -20 -14 -19 -20 -20 -20 -20 -15 -20 -20 -20 -20
-20 -20 -20 -7 -20 -20 -20 -20 -20 -20 -20 -20 -20 -20 -20 -20 -20 -20 -20 -20 -20 -20 -20 -20 -20 -20 -17 -7 4 -20 -14 -14 -20 -17 -17 -20 -20 -20 -20 -20 -11 -1 -20
-20 -20 -20 -20 -20 -20 -20 -20 -20 -20 -20 -20 -20 -20 -20 -20 -20 -20 -20 -20 -20 -20 -20 -20 -20 -20 -20 -20 -20 -20 -20 -20 -20 -20 -20 -20 -20 -20 -20 -20 -20 -19 -19
-18 -11 -20 -20 -20 -20 -20 -20 -20 -20 -20 -20 -20 -20 -20 -20 -20 -20 -20 -20 -20 -20 -20 -20 -20 -20 -20 -20 -20 -20 -20 -20 -20 -20 -20 -20 -20 -12 -20 -20 -20 -20 -3
6 -14 -19 -19 -19 -20 -19 -20 -20 -20 -20 -20 -20 -20 -20 -20 -20 -20 -20 -20 -20 -20 -20 -20 -20 -20 -20 -20 -20 -20 -20 -20 -20 -20 -20 -16 -13 -20 -19 -10 -20 -20 -20
2 16 -3 -5 24 19 27 -19 -17 7 -20 -20 -20 -20 -20 -20 -20 -20 -20 -20 -20 -20 -20 -20 -20 -20 -20 -20 -20 -19 -20 -20 -20 -8 2 -4 5 -19 -20 8 -16 -3 24
-20 -19 -9 -6 11 15 23 26 24 21 21 -20 -20 -20 -20 -20 -20 -20 -6 -20 -20 -20 -20 -20 -20 -20 -20 -20 -20 -20 -20 -20 -20 -19 9 21 15 -20 14 39 10 13 21
-20 -20 16 15 -20 -11 -5 22 19 9 15 22 25 26 -12 -20 -20 11 -20 -20 -20 -20 -20 -20 -20 -20 -20 -20 -20 -20 -20 -20 -5 -7 9 18 23 33 33 2 15 23 31
-20 -20 -20 -20 -20 -13 -15 24 21 -0 5 21 22 21 25 3 24 18 11 9 11 10 -17 -20 4 -16 -20 -17 -19 -20 -17 -20 -19 -0 18 30 24 15 23 30 18 9 23
-20 -20 -20 -20 -20 -20 -20 -20 -9 -13 12 24 18 20 8 20 17 18 18 -0 3 6 14 12 15 21 20 24 21 10 4 25 32 31 25 17 19 22 21 28 29 24 24
-20 -20 -20 -20 -20 -20 -20 -20 -16 23 23 19 13 20 1 15 30 10 16 21 24 4 10 18 33 36 34 31 25 27 30 25 18 26 32 25 30 16 20 21 20 19 20
-20 -20 -20 -20 -20 -20 -20 -20 -20 7 24 25 27 23 13 15 19 20 13 21 34 27 40 23 31 19 15 17 23 27 28 20 23 25 26 26 25 28 28 27 24 21 20
-20 -20 -20 -20 -20 -20 -20 -20 -20 -20 -20 14 23 26 23 20 26 26 16 9 20 30 30 39 46 38 23 23 25 31 36 38 31 31 30 31 33 36 35 29 23 18 17
-20 -20 -20 -20 -20 -20 -20 -20 -20 -20 -20 -20 -9 14 14 -0 24 38 37 25 26 17 19 27 29 31 24 30 32 24 29 31 30 28 29 28 28 27 24 20 13 8 2
-20 -20 -17 -20 -20 -20 -20 -20 -19 -16 -5 -20 -17 -17 0 14 24 27 30 35 32 21 26 29 37 39 32 26 26 20 24 24 22 20 21 20 16 11 5 -2 -6 -8 -11
-20 -20 -20 -20 -20 -20 -20 -20 -20 -19 -18 -15 -11 -2 4 5 6 9 12 15 17 16 15 8 14 18 20 20 19 18 15 18 19 18 17 12 -4 -11 -7 -6 -7 -7 -18
-17 4 -18 -16 -8 -12 -20 -20 -20 -20 -20 -18 -9 1 10 8 7 1 9 11 16 17 16 14 14 16 16 16 16 14 12 10 8 4 6 4 -0 -20 -20 -20 -20 -20 -20
-19 -15 -14 -15 -19 -19 -20 -20 -20 -20 -20 -19 -19 -20 -7 2 7 8 12 17 19 18 17 13 1 -1 2 4 -3 -0 0 3 2 -1 -1 -4 -11 -20 -20 -20 -20 -20 -20
-20 -20 -20 -18 -16 -19 -20 -17 -17 -19 -20 -20 -20 -20 -19 -20 -5 8 11 12 11 8 5 3 3 4 -3 -15 -20 -19 -20 -20 -20 -20 -20 -20 -20 -20 -20 -20 -20 -20 -20
-20 -20 -20 -20 -11 -5 -15 -12 -14 -17 -19 -20 -20 -20 -20 -20 -20 -19 -11 -4 -4 -6 -20 -20 -20 -20 -20 -20 -20 -20 -20 -20 -20 -20 -20 -20 -20 -20 -20 -20 -20 -20 -20
-20 -20 -20 -13 -3 2 7 9 10 2 -10 -15 -16 -19 -20 -20 -20 -20 -20 -20 -20 -20 -20 -20 -20 -20 -20 -20 -20 -20 -20 -20 -20 -20 -20 -20 -20 -20 -20 -20 -20 -20 -20
-20 -20 -19 -11 1 7 6 4 5 6 -2 -11 -20 -20 -20 -20 -20 -20 -20 -20 -20 -20 -20 -20 -20 -20 -20 -20 -20 -20 -20 -20 -20 -20 -20 -20 -20 -20 -20 -20 -20 -20 -20
-20 -20 -20 -16 -9 -4 -5 -4 -11 -19 -19 -20 -20 -20 -20 -20 -20 -20 -20 -20 -20 -20 -20 -20 -20 -20 -20 -20 -20 -20 -20 -20 -20 -20 -20 -20 -20 -20 -20 -20 -20 -20 -20
-20 -20 -20 -20 -20 -20 -20 -20 -20 -20 -20 -20 -20 -20 -20 -20 -20 -20 -20 -20 -20 -20 -20 -20 -20 -20 -20 -20 -20 -20 -20 -20 -20 -20 -20 -20 -20 -20 -20 -20 -20 -20 -20
-20 -20 -20 -20 -20 -20 -20 -20 -20 -20 -20 -20 -20 -20 -20 -20 -20 -20 -20 -20 -20 -20 -20 -20 -20 -20 -20 -20 -20 -20 -20 -20 -20 -20 -20 -20 -20 -20 -20 -20 -20 -20 -20

GFSGL_prec_radar_093.txt.gz
Reflectivity
-20 -20 -20 -20 -20 -20 -20 -20 -20 -20 -20 -20 -20 -20 -20 -20 -20 -20 -17 17 18 -1 9 2 -12 -20 -20 -17 -12 -7 18 17 2 5 -15 -18 8 23 -0 6 28 20 1
-20 -20 -11 -20 -20 -20 -20 -20 -20 -20 -20 -20 -20 -20 -20 -20 -20 -20 -20 -20 -7 -5 -3 -20 -20 -20 -20 -20 17 1 1 9 -10 -13 -2 -12 -20 -16 -8 5 -20 -20 -20
-20 -20 -6 -20 -20 -20 -20 -20 -20 -20 -20 -20 -20 -20 -20 -20 -20 -20 -20 -20 -20 -20 -20 -20 -20 -20 -20 -20 -20 -20 -18 4 -9 25 -15 -20 -18 -13 -10 -20 -20 -20 -20
-14 -20 -20 -20 -20 -20 -20 -20 -20 -20 -20 -20 -20 -20 -20 -20 -20 -20 -20 -20 -20 -20 -20 -20 -20 -20 -20 -20 -20 -20 -20 -20 -20 -10 8 2 -20 -20 -20 -20 -20 -20 -20
-11 -20 0 -20 -20 -20 -20 -20 -20 -20 -20 -20 -20 -20 -20 -20 -20 -20 -20 -20 -20 -20 -20 -20 -20 -20 -20 -20 -20 -20 -20 -10 -18 3 10 -20 -20 -20 -20 -20 -20 -20 -20
4 29 29 -20 23 -7 19 -18 -20 -20 -20 -20 -20 -20 -20 -20 -20 -20 -20 -20 -20 -20 -20 -20 -20 -20 -20 -20 -20 -20 -20 -20 -20 -20 -20 -20 -20 -20 -20 -20 -20 -20 -20
-20 -19 4 8 8 8 -6 1 0 9 5 -16 -20 -20 -20 -20 -20 -20 -20 -20 -20 -20 -20 -20 -20 -20 -20 -20 -20 -20 -20 -20 -6 -7 -20 -20 -20 -20 -20 -20 -20 -20 -18
-20 -20 -17 -8 3 0 13 22 19 17 12 7 25 16 2 10 -14 -20 -20 -20 -20 -20 -20 -20 -20 -20 -20 -20 -20 -20 -20 -20 -20 -20 -20 -20 -20 -20 -20 -11 19 22 11
-20 -20 -18 -20 -19 -8 20 10 19 22 5 14 26 18 21 -0 18 -0 19 12 16 -15 -20 -20 -20 -20 -20 -17 -15 -20 -20 -17 18 18 14 16 15 15 16 13 21 19 16
-20 -20 -20 -20 -20 -20 -20 -20 -2 -1 12 16 26 26 25 19 24 15 18 22 19 17 -16 -20 11 -10 6 -17 -11 -20 -20 -20 -20 -20 -15 8 13 16 18 15 3 19 23
-20 -20 -20 -20 -20 -20 -20 -20 -20 -20 -20 13 23 13 17 13 15 14 25 33 32 22 27 23 29 22 24 17 12 17 12 13 19 17 18 18 18 17 17 18 26 33 31
-20 -20 -20 -20 -20 -20 -20 -20 -20 -20 -20 1 19 26 21 21 30 18 20 26 26 23 35 37 34 43 31 13 26 32 33 33 18 18 20 21 20 20 27 21 21 21 26
-20 -20 -20 -20 -20 -20 -20 -20 -20 -20 -20 -20 -20 -10 11 18 18 25 15 20 26 21 18 25 27 29 30 23 30 32 38 42 39 33 35 31 34 35 31 24 29 31 31
-20 -20 -20 -20 -20 -20 -20 -20 -20 -20 -20 -20 -20 -20 -20 -20 -20 -15 3 16 21 24 25 24 23 25 30 29 16 18 23 30 37 39 38 29 25 24 23 25 26 26 26
-20 -20 -20 -20 -20 -20 -20 -20 -20 -20 -20 -20 -20 -20 -20 -20 -15 -10 -13 6 12 17 -3 7 20 28 28 29 29 28 20 25 26 26 26 27 27 27 25 21 12 12 14
-20 -20 -20 -20 -20 -20 -20 -18 -17 -17 -15 -2 -8 -19 -1 7 3 -1 -14 -20 -19 -19 -18 -6 -3 5 16 21 21 18 19 20 20 21 23 23 22 20 13 10 4 5 4
-20 -20 -15 -3 -20 -20 -20 -20 -20 -19 -19 -19 -19 -19 -3 1 -20 -20 -20 -20 -20 -20 -20 -16 -9 -0 7 9 10 11 10 5 7 8 7 9 8 8 7 7 6 -3 -13
-20 -13 -18 -16 -15 -16 -20 -20 -20 -20 -20 -20 -20 0 3 -15 -12 -18 -20 -20 -20 -20 -9 3 5 6 7 -3 -0 1 2 -3 0 6 7 6 4 -1 -10 -11 -14 -20 -20
-20 -20 -20 -20 -20 -17 -19 -19 -20 -20 -20 -20 -20 -20 -15 -9 -20 -19 -18 -20 -19 -8 2 7 10 9 9 8 -2 -1 -2 -4 -3 -10 -15 -17 -20 -20 -20 -20 -20 -20 -20
-20 -20 -20 -20 -20 -20 -20 -20 -20 -20 -20 -19 -19 -9 -10 -15 -20 -20 -20 -20 -20 -20 -16 -6 2 -2 4 4 0 -10 -10 -15 -20 -20 -20 -20 -20 -20 -20 -20 -20 -20 -20
-20 -20 -20 -20 -20 -20 -20 -20 -20 -20 -17 -12 -5 2 3 3 4 -1 -17 -20 -20 -20 -20 -20 -20 -20 -20 -20 -20 -20 -20 -20 -20 -20 -20 -20 -20 -20 -20 -20 -20 -20 -20
-20 -20 -20 -20 -20 -20 -20 -20 -19 -20 -11 -6 -1 6 7 9 7 2 -14 -15 -20 -20 -20 -20 -20 -20 -20 -20 -20 -20 -20 -20 -20 -20 -20 -20 -20 -20 -20 -20 -20 -20 -20
-20 -20 -20 -20 -20 -20 -20 -20 -20 -17 -18 -20 -20 -20 -18 -12 -14 -15 -19 -20 -20 -20 -20 -20 -20 -20 -20 -20 -20 -20 -20 -20 -20 -20 -20 -20 -20 -20 -20 -20 -20 -20 -20
-20 -20 -20 -20 -20 -20 -20 -20 -20 -20 -20 -20 -20 -20 -20 -20 -20 -20 -20 -20 -20 -20 -20 -20 -20 -20 -20 -20 -20 -20 -20 -20 -20 -20 -20 -20 -20 -20 -20 -20 -20 -20 -20
-20 -20 -20 -20 -20 -20 -20 -20 -20 -20 -20 -20 -20 -20 -20 -20 -20 -20 -20 -20 -20 -20 -20 -20 -20 -20 -20 -20 -20 -20 -20 -20 -20 -20 -20 -20 -20 -20 -20 -20 -20 -20 -20
-20 -20 -20 -20 -20 -20 -20 -20 -20 -20 -20 -20 -20 -20 -20 -20 -20 -20 -20 -20 -20 -20 -20 -20 -20 -20 -20 -20 -20 -20 -20 -20 -20 -20 -20 -20 -20 -20 -20 -20 -20 -20 -20

GFSGL_prec_radar_096.txt.gz
Reflectivity
-20 -20 -20 -20 -20 -20 -20 -20 -20 -20 -20 -20 -20 -20 -20 -20 -13 -20 -20 -18 -20 -8 -4 -4 7 6 0 -16 -20 -5 -19 12 11 -20 -19 -18 5 -8 20 16 8 16 15
24 -20 -20 -20 -20 -20 -20 -20 -20 -20 -20 -20 -20 -20 -20 -20 -20 -5 -13 5 12 9 2 6 -6 1 3 -20 -20 -20 -20 -20 -2 -20 -13 -20 -20 16 -11 21 15 -20 -14
17 -20 -20 -20 -20 -20 -20 -20 -20 -20 -20 -20 -20 -20 -20 -20 -20 -20 -20 -20 -20 -20 -15 13 22 -16 -12 -10 -20 -20 -20 -20 -20 13 -15 -20 -15 3 11 4 -20 -20 -20
-14 -7 -20 -20 -14 -20 -20 -20 -20 -20 -20 -20 -20 -20 -20 -20 -20 -20 -20 -20 -20 -20 -20 -20 -17 -20 -17 -20 -20 -20 -20 -20 -9 9 12 -20 -20 -14 -20 -20 -11 -20 -20
25 -11 -19 -20 3 -20 -20 -20 -20 -20 -20 -20 -20 -20 -20 -20 -20 -20 -20 -20 -20 -20 -20 -20 -20 -20 -20 -20 -20 -20 -20 -20 -20 -15 -20 -20 -20 -20 -20 -15 -5 -20 -20
28 10 11 -13 -20 -20 -20 -20 -20 -20 -20 -20 -20 -20 -20 -20 -20 -20 -20 -20 -20 -20 -20 -20 -20 -20 -20 -20 -20 -20 -20 -20 -20 -20 -20 -20 -20 -20 -20 -20 -20 -20 -20
-17 12 19 25 -1 -15 -18 -20 -20 -20 -20 -20 -20 -20 -20 -20 -20 -20 -20 -20 -20 -20 -20 -20 -20 -20 -20 -20 -20 -20 -20 -20 -20 -20 -20 -20 -20 -20 -20 -12 -20 -20 -20
3 -13 9 12 11 2 -4 5 -10 -7 -20 -20 -20 -20 -20 -19 10 14 19 12 -0 -2 -19 -20 -20 -20 -20 -20 -20 -20 -20 -20 -20 -20 -20 -20 -20 -20 -20 -20 -15 7 11
-19 -20 -16 -14 -17 3 -19 -13 -3 1 19 20 14 28 21 13 19 11 11 -9 11 11 17 16 -4 -2 19 14 1 -20 -20 -19 19 21 23 21 15 18 21 14 15 10 15
-20 -20 -20 -20 -20 -20 -20 -20 -20 -8 5 7 16 13 21 10 22 16 25 30 30 26 19 11 29 39 24 21 9 -1 19 25 27 22 13 14 18 17 23 13 2 22 17
-20 -20 -20 -20 -20 -20 -20 -20 -20 -20 -20 -20 12 19 21 26 18 16 10 17 17 21 14 9 5 25 12 15 22 25 38 41 37 38 34 30 21 27 23 26 24 17 24
-20 -20 -20 -20 -20 -20 -20 -20 -20 -20 -20 -20 -20 -16 10 3 30 23 23 22 20 13 16 21 28 35 25 30 41 42 36 26 33 36 35 37 39 33 28 34 33 24 26
-17 -12 -20 -20 -20 -20 -20 -20 -20 -20 -20 -20 -20 -20 -20 -20 -18 2 11 -2 -8 -2 1 11 19 16 18 21 30 31 20 26 25 17 28 33 32 24 26 26 27 29 28
-20 -20 -20 -20 -20 -20 -20 -20 -20 -20 -20 -20 -20 -20 -20 -20 -20 -20 -20 -20 -20 -20 -20 -20 -20 -20 -17 -1 10 16 13 4 7 14 18 22 22 23 23 22 23 24 23
-20 -20 -20 -20 -20 -20 -19 -16 -19 -14 -15 -20 -19 -19 -20 -19 -9 -12 -20 -20 -20 -20 -20 -20 -20 -20 -20 -20 -20 -20 -20 -13 -1 10 15 17 18 18 17 16 17 17 17
-20 -20 -15 -20 -20 -20 -20 -20 -15 2 -15 -20 -20 -20 -15 1 1 -11 -19 -20 -20 -20 -20 -20 -20 -20 -20 -20 -20 -20 -20 -20 -17 -7 4 11 13 13 13 13 14 12 8
-20 -20 -19 -5 -20 -20 -20 -20 -20 -20 -20 -19 1 1 2 1 -10 -5 -20 -20 -20 -20 -20 -20 -20 -20 -20 -20 -20 -20 -20 -20 -20 -20 -14 -4 1 5 7 6 6 -1 -4
-20 -20 -19 -17 -18 -20 -20 -20 -20 -20 -20 -20 -15 -18 -4 -5 -6 -20 -20 -20 -20 -20 -20 -20 -20 -20 -20 -20 -20 -20 -20 -20 -20 -20 -20 -8 -1 3 4 2 1 -4 -5
-20 -20 -20 -20 -20 -20 -20 -20 -20 -20 -20 -20 -20 -20 -20 -13 -20 -20 -20 -20 -20 -20 -20 -20 -19 -18 -17 -18 -20 -20 -20 -20 -20 -15 -10 -9 -8 -9 -13 -15 -18 -20 -20
-20 -20 -20 -20 -20 -20 -20 -20 -20 -20 -20 -20 -20 -20 -20 -20 -20 -20 -20 -20 -20 -20 -20 -20 -20 -6 -10 -20 -20 -20 -20 -20 -20 -20 -20 -20 -20 -20 -20 -20 -20 -20 -20
-20 -20 -20 -20 -20 -20 -20 -20 -20 -20 -20 -20 -20 -20 -20 -20 -20 -20 -20 -20 -20 -10 0 3 7 0 -18 -20 -20 -20 -20 -20 -20 -20 -20 -20 -20 -20 -20 -20 -20 -20 -20
-20 -20 -20 -20 -20 -19 -20 -20 -20 -20 -20 -20 -20 -20 -20 -20 -20 -20 -20 -20 -17 -9 -11 -10 -20 -20 -20 -20 -20 -20 -20 -20 -20 -20 -20 -20 -20 -20 -20 -20 -20 -20 -20
-20 -20 -20 -20 -20 -20 -20 -20 -20 -20 -20 -20 -20 -20 -20 -20 -20 -20 -20 -20 -20 -20 -20 -20 -20 -20 -20 -20 -20 -20 -20 -20 -20 -20 -20 -20 -20 -20 -20 -20 -20 -20 -20
-20 -20 -20 -20 -20 -20 -20 -20 -20 -20 -20 -20 -20 -20 -20 -20 -20 -20 -20 -20 -20 -20 -20 -20 -20 -20 -20 -20 -20 -20 -20 -20 -20 -20 -20 -20 -20 -20 -20 -20 -20 -20 -20
-20 -20 -20 -20 -20 -20 -20 -20 -20 -20 -20 -20 -20 -20 -20 -20 -20 -20 -20 -20 -20 -20 -20 -20 -20 -20 -20 -20 -20 -20 -20 -20 -20 -20 -20 -20 -20 -20 -20 -20 -20 -20 -20
-20 -20 -20 -20 -20 -20 -20 -20 -20 -20 -20 -20 -20 -20 -20 -20 -20 -20 -20 -20 -20 -20 -20 -20 -20 -20 -20 -20 -20 -20 -20 -20 -20 -20 -20 -20 -20 -20 -20 -20 -20 -20 -20

GFSGL_prec_radar_099.txt.gz
Reflectivity
-6 -3 -20 -20 -20 -20 -20 -20 -20 -20 -15 -20 -20 -20 -18 -20 -20 -19 -11 -9 -9 -20 2 11 -20 -5 -15 -11 -16 -20 -8 17 18 -14 -20 -20 16 -6 12 28 18 8 25
-2 23 -4 -20 -20 -20 -20 -20 -20 -20 -20 -20 -20 -20 -20 -20 -15 -2 -2 -18 0 -16 -20 -14 -20 13 11 12 -2 -18 -5 -15 12 -20 20 3 -20 -20 -12 12 10 13 -20
-3 -19 -20 -20 -20 -20 -20 -20 -20 -20 -20 -20 -20 -20 -3 1 -11 4 -10 -20 -20 -6 3 10 10 14 3 15 18 3 15 5 16 21 -20 -20 -20 -20 -12 -15 -6 -11 -9
-20 -17 -20 -20 -20 -20 -20 -20 -20 -20 -20 -20 -20 -20 -20 -15 -15 -18 6 -15 -16 -16 -19 -6 11 15 10 12 24 11 -18 16 18 2 -20 -20 -20 -20 -20 -20 -20 -20 -20
22 23 18 -3 -20 -20 -20 -20 -20 -20 -20 -20 -20 -20 -20 -20 -20 -20 -20 -17 -13 -18 -20 -20 -20 -20 -20 -18 -10 -0 7 14 12 -11 -14 -7 -20 1 13 -20 -6 -20 -20
6 16 26 23 -19 -20 -20 -20 -20 -20 -20 -20 -20 -20 -20 -20 -20 -20 -20 -20 -20 -7 -20 -20 -20 -20 -20 -20 -20 -20 -18 -20 -20 -20 -20 -20 -20 -2 -20 -20 -20 -20 -2
1 9 22 30 24 25 3 -17 -14 -20 -20 -20 -20 -20 -20 -20 -11 -19 -19 -20 -20 -20 -20 -20 -20 -20 -20 -20 -20 -20 -20 -20 -20 -20 -20 -20 -20 -20 -20 -20 -20 -3 -8
19 26 22 14 -1 5 1 1 7 12 11 4 -20 -12 -17 4 7 -19 -13 -18 -5 7 -2 -0 -1 9 -7 -14 -20 -20 -20 -17 -10 -0 0 18 26 23 13 12 20 18 10
35 37 4 -20 -17 3 7 3 17 3 6 9 14 5 18 15 19 11 6 3 -9 18 24 16 17 4 20 26 20 15 16 28 28 32 40 41 38 34 23 9 20 33 31
28 19 -1 -20 -20 -20 -20 -20 -20 1 16 11 17 21 29 13 23 9 9 11 7 8 6 -4 23 7 -7 6 7 8 -0 8 18 8 20 30 14 25 30 31 35 39 29
13 -12 -17 -20 -20 -20 -20 -20 -20 -20 -17 -20 -4 -2 15 13 15 13 -15 -19 12 9 1 8 10 32 28 17 18 14 14 36 21 35 19 26 30 37 31 27 14 23 30
5 -20 -20 -20 -20 -20 -20 -20 -20 -20 -20 -20 1 -5 -20 -20 -12 3 -12 -16 -11 -3 5 12 21 25 17 15 11 26 25 28 8 15 16 12 15 19 15 8 -1 -1 10
15 -14 -5 1 -5 -20 -18 -4 -5 -13 -20 -20 -20 -20 -20 -20 -19 -20 -20 -10 -20 -20 -6 -14 -20 -19 -18 -20 -17 2 7 -18 -20 -19 -19 -1 7 2 -8 -6 -20 -12 -7
9 8 -8 -20 -20 -20 -20 -20 -20 -20 -17 -20 -16 -5 -5 -19 -18 -20 -20 -4 -20 -20 -20 -20 -20 -20 -20 -20 -20 -19 -20 -20 -20 -20 -19 -18 -20 -20 -19 -13 -20 -20 -20
-14 -4 -8 -16 -20 -20 -20 -12 -12 -16 -3 -3 -1 -5 -4 -1 3 -12 -20 -20 -20 -20 -20 -20 -20 -20 -20 -20 -20 -20 -20 -20 -9 -3 -20 -20 -20 -20 -20 -20 -20 -20 -20
-20 -20 -9 -20 -20 -20 -20 -19 -16 -14 -14 -10 -20 -6 4 -0 -4 -20 -20 -20 -20 -20 -20 -20 -20 -20 -20 -20 -20 -20 -20 -20 -20 -20 -20 -20 -20 -20 -20 -20 -20 -20 -20
-20 -20 -20 -20 -20 -20 -20 -20 -20 -20 -20 -19 -2 4 -1 5 -20 -20 -20 -20 -20 -20 -20 -20 -20 -15 -20 -20 -20 -20 -20 -20 -20 -20 -20 -20 -20 -20 -20 -20 -20 -20 -20
-20 -20 -20 -20 -20 -20 -20 -20 -20 -20 -20 -20 -20 -3 -0 -9 -20 -20 -20 -20 -20 -20 -20 -20 -20 -20 -20 -20 -20 -20 -20 -20 -20 -20 -20 -20 -20 -20 -20 -20 -20 -20 -20
-20 -20 -20 -20 -20 -20 -20 -20 -20 -20 -20 -20 -20 -20 -20 -6 -20 -20 -20 -20 -20 -20 -20 -20 -20 -20 -20 -20 -20 -20 -20 -11 -13 -15 -20 -16 -20 -20 -20 -20 -20 -20 -20
-20 -20 -20 -20 -20 -20 -20 -20 -20 -20 -20 -20 -20 -20 -20 -20 -20 -20 -20 -20 -20 -20 -20 -20 -20 -20 -20 -20 -20 -20 -19 -19 -20 -17 -20 -20 -20 -20 -20 -20 -20 -20 -20
-20 -20 -20 -20 -20 -20 -20 -20 -20 -20 -20 -20 -20 -20 -20 -20 -20 -20 -20 -20 -20 -20 -20 -20 -20 -20 -20 -20 -20 -20 -20 -20 -20 -20 -20 -20 -20 -20 -20 -20 -20 -20 -20
-20 -20 -20 -20 -20 -20 -20 -20 -20 -20 -20 -20 -20 -20 -20 -20 -20 -20 -20 -20 -20 -20 -20 -20 -20 -20 -20 -20 -20 -20 -20 -20 -20 -20 -20 -20 -20 -20 -20 -20 -20 -20 -20
-20 -20 -20 -20 -20 -20 -20 -20 -20 -20 -20 -20 -20 -20 -20 -20 -20 -20 -20 -20 -20 -20 -20 -20 -20 -20 -20 -20 -20 -20 -20 -20 -20 -20 -20 -20 -20 -20 -20 -20 -20 -20 -20
-20 -20 -20 -20 -20 -20 -20 -20 -20 -20 -20 -20 -20 -20 -20 -20 -20 -20 -20 -20 -20 -20 -20 -20 -20 -20 -20 -20 -20 -20 -20 -20 -20 -20 -20 -20 -20 -20 -20 -20 -20 -20 -20
-20 -20 -20 -20 -20 -20 -20 -20 -20 -20 -20 -20 -20 -20 -20 -20 -20 -20 -20 -20 -20 -20 -20 -20 -20 -20 -20 -20 -20 -20 -20 -20 -20 -20 -20 -20 -20 -20 -20 -20 -20 -20 -20
-20 -20 -20 -20 -20 -20 -20 -20 -20 -20 -20 -20 -20 -20 -20 -20 -20 -20 -20 -20 -20 -20 -20 -20 -20 -20 -20 -14 -20 -20 -20 -20 -20 -20 -20 -20 -20 -20 -20 -20 -20 -20 -20

GFSGL_prec_radar_102.txt.gz
Reflectivity
3 -20 -20 -20 -20 -20 -20 -20 -20 2 -20 -2 -2 10 -18 -15 -9 8 -3 13 22 20 19 26 28 25 23 22 17 14 12 11 7 -5 -5 11 11 -20 -20 -20 -19 -16 -7
-20 -20 -20 -20 -20 -20 -20 -20 -20 -14 -15 -20 -20 10 -20 1 3 -0 -7 -19 -20 -18 -16 -13 2 11 -19 6 -20 -2 -5 17 17 -20 -19 -11 16 -19 -20 -0 -20 -20 -20
-6 10 -18 -20 -20 -20 -20 -20 -8 -13 -20 -20 0 1 -19 -20 -1 -9 -19 -4 -9 -19 -20 -20 0 11 -20 -20 -20 -20 4 16 -6 8 -20 22 20 11 20 -1 21 -20 -20
15 18 29 -20 -20 -20 -20 -20 -11 -20 -20 -11 -13 -7 -2 1 -20 -20 -11 -11 -14 -20 -20 -20 -20 -20 -20 -17 -18 -20 -2 16 -2 -3 -11 -20 -12 -20 -4 10 16 16 1
31 23 27 18 -20 -11 -20 -20 -9 -2 -20 -5 -5 -3 0 -6 -17 -20 -20 -20 -16 -7 -7 -20 -20 -20 -20 -20 -20 -20 -20 -7 19 19 11 -20 -20 -20 -9 -15 17 9 -20
20 16 -5 2 -20 -20 5 -19 -20 -5 -5 -7 -20 6 10 7 15 -20 -0 6 -0 -20 5 -4 -20 4 -20 -20 -20 -20 -18 7 4 3 -20 -20 -17 -20 -20 15 15 16 17
27 23 13 7 1 9 23 6 5 -13 8 -20 -15 2 -0 3 2 -20 -20 -5 6 -1 -7 -0 -18 -17 -1 4 -17 -19 -20 -20 -20 5 22 20 21 15 -3 3 13 15 10
20 -18 -20 -12 7 4 17 23 21 12 -2 0 -0 -6 13 -4 10 11 13 -10 -20 -20 -10 3 11 6 6 4 -11 -8 -20 -20 -14 -9 -11 -11 -5 -13 -5 13 16 16 16
-7 -11 -4 5 14 29 21 4 20 16 18 18 10 12 17 9 15 4 3 -12 8 22 23 6 -1 5 26 15 12 3 8 36 33 38 40 41 35 24 31 34 31 32 34
23 26 26 26 36 29 12 15 22 11 -1 9 -0 -0 24 11 17 7 6 -20 7 15 23 17 23 3 -19 -19 -20 -9 -2 24 24 21 14 21 25 21 33 23 15 27 25
14 27 26 30 27 14 0 -11 -13 -8 -15 -13 -11 -10 -8 16 9 11 9 3 1 13 -0 9 21 23 10 28 10 9 20 36 20 31 32 26 27 22 -0 -6 -7 -6 1
9 23 21 17 15 16 10 -13 -20 -20 -20 -20 -20 -20 -20 -19 -9 -20 -17 -18 7 -9 0 12 9 17 15 8 10 17 3 14 2 7 2 -13 -7 -2 3 3 -15 -20 -6
18 27 26 16 -5 2 9 8 -9 -19 -19 -20 -6 -4 1 0 -3 -20 -18 -10 -13 -13 -2 1 -6 -20 -20 -20 -20 -20 -4 -19 -20 -20 -20 -14 -4 1 -1 -20 -20 -20 -20
-20 -7 12 16 5 -6 -10 4 11 -4 -3 -3 -4 1 0 -1 2 0 1 -2 -18 -5 -16 1 -20 -5 -20 -15 2 3 3 3 3 -1 -0 -2 0 -18 -3 -9 -9 -5 -20
-20 -19 -6 0 6 12 10 8 12 10 2 3 2 0 2 2 1 -14 0 -4 -4 -8 4 2 -0 -3 -4 0 -3 -5 -15 -11 -5 -13 -4 -11 -20 -20 -20 -20 -20 -20 -20
-20 -20 -11 -9 -20 -20 -17 -19 -6 -4 -4 -20 -20 1 3 3 -20 -20 -20 -20 -20 -20 -4 -2 -1 -2 -0 -2 -2 -3 -15 -20 -18 -20 -20 -20 -20 -20 -20 -20 -20 -20 -20
-3 -14 -4 -6 -5 -8 1 -1 -5 -12 -20 -18 -2 -1 -2 -18 -10 -20 -20 -20 -20 -20 -1 2 1 1 -1 -20 -20 -20 -20 -20 -20 -20 -20 -20 -20 -20 -20 -20 -20 -20 -20
-5 -20 2 3 2 1 -0 0 -3 -1 1 0 -16 -2 -3 -5 -20 -20 -20 -20 -20 -20 -6 -2 -2 -17 -20 -20 -20 -20 -20 -20 -20 -20 -20 -20 -20 -20 -20 -20 -20 -20 -20
-7 -0 -6 -2 -2 -2 -0 0 1 0 2 2 -1 -20 -4 -20 -20 -20 -20 -5 -4 -11 -20 -20 -20 -20 -20 -20 -20 -20 -20 -20 -20 -20 -20 -20 -20 -20 -20 -20 -20 -20 -20
-2 -16 -7 -5 -3 1 -1 0 -0 -0 0 -1 -2 0 0 -6 -16 -3 -3 -3 -20 -20 -20 -20 -20 -20 -20 -20 -20 -20 -20 -20 -20 -20 -20 -20 -20 -20 -20 -20 -20 -20 -20
-4 1 -19 -1 -1 -0 0 -0 1 -0 0 -3 -1 -3 -20 -19 -9 -20 -20 -20 -20 -20 -4 -20 -19 -20 -20 -20 -20 -20 -20 -20 -20 -20 -20 -20 -20 -20 -20 -20 -20 -20 -20
1 -0 -0 -0 -0 0 0 -1 -2 -2 -4 -2 -16 -20 -20 -20 -20 -20 -20 -3 -1 -20 -20 -11 -20 -20 -20 -20 -20 -20 -20 -20 -20 -20 -20 -20 -20 -20 -20 -20 -20 -15 -20
-0 1 -0 -0 -2 -2 0 -2 -1 -12 -20 -20 -20 -20 -20 -20 -20 -20 -20 -3 -16 -4 -11 -9 -20 -20 -20 -13 -20 -20 -20 -20 -20 -20 -20 -20 -20 -11 -3 -3 -20 -20 -20
1 1 -2 -2 -1 0 1 -19 -20 -20 -20 -20 -3 -14 -20 -7 -2 -6 -4 -2 -2 -3 -2 -8 -20 -20 -20 -7 -2 -20 -20 -20 -20 -20 -20 -20 -20 -20 -3 -20 -4 -20 -7
3 2 2 2 0 1 -0 -4 -1 -2 -2 -1 -1 -2 -6 -6 -14 -1 -1 -4 -7 -3 -18 -17 -14 -20 -20 -20 -20 -20 -20 -20 -20 -20 -3 -18 -20 -20 -20 -6 -20 -2 -19
-10 -2 0 1 2 2 1 1 2 -0 -0 -0 -1 -1 -2 -20 -7 -2 -13 -20 -20 -20 -20 -20 -20 -20 -20 -12 -11 -12 -20 -20 -20 -20 -19 -1 -1 -0 -1 -1 -6 -1 1

GFSGL_prec_radar_105.txt.gz
Reflectivity
-20 7 -20 -4 -20 -20 -20 -20 -20 -17 -18 -19 -3 -5 -18 -20 -16 9 -18 -14 -12 -17 -20 -17 -14 4 12 29 28 18 21 20 13 7 1 13 11 -0 13 -15 -20 -20 -20
-19 10 6 -11 -20 -20 -20 -20 -20 -20 -17 -19 -20 -20 -5 -19 -19 2 -6 -15 -20 -20 7 -12 -5 10 17 29 26 27 23 17 11 -4 -16 10 8 -7 -20 19 10 14 -20
-6 15 14 12 -16 -11 18 -20 -20 -14 2 -20 -0 -0 -4 -6 -5 -17 -19 1 -10 -16 -4 -20 -20 -14 -4 4 12 8 5 7 -9 4 -20 10 15 -15 -15 -20 -20 -5 14
7 3 2 12 14 27 -13 -20 -5 -19 -16 10 -20 4 -20 -17 -7 -7 -20 -18 1 -7 3 6 -3 -11 -20 -20 9 -5 -8 7 -20 -20 -20 -14 -5 -20 9 -20 -3 0 -20
-5 16 1 20 10 25 12 -19 3 3 1 -20 -20 -7 -15 -18 -19 -0 -6 -18 -18 -14 -7 -11 3 4 3 -9 -5 4 5 5 -17 -20 -20 -20 -20 -20 -20 -20 -20 -20 -20
12 8 21 14 21 20 -20 -18 -8 -11 -6 11 12 6 14 10 13 1 4 5 6 7 -19 -20 -20 -20 -20 -20 -20 -20 -20 12 12 9 -17 1 -20 4 -20 14 -19 -3 21
20 29 15 6 21 18 13 8 -14 -20 -9 2 -3 -11 -20 -20 -6 -18 -13 -20 4 7 -19 -19 -14 -14 5 -20 10 10 -10 9 14 10 -8 10 18 10 -15 -5 10 14 14
22 23 27 20 19 16 13 1 -8 7 23 25 15 -4 -18 -16 -11 -20 -3 -20 -20 15 14 5 15 18 15 7 0 11 19 21 22 23 27 26 21 18 3 19 10 11 16
21 31 32 26 24 9 19 15 6 10 21 10 4 0 -5 -6 12 -0 8 -8 -0 1 2 -0 11 15 25 15 5 15 28 22 30 23 19 22 26 24 32 32 33 27 28
38 43 39 35 31 23 23 24 7 26 41 29 19 14 30 5 20 10 7 -10 -2 -2 13 6 28 13 7 -10 8 -14 21 13 0 14 20 24 26 25 15 10 20 29 14
32 43 39 26 25 30 31 30 36 40 40 40 39 27 26 29 23 27 29 19 30 32 33 21 17 31 16 -12 -2 9 19 19 27 25 34 28 -15 -12 8 1 -11 -2 -5
42 37 35 32 32 24 28 30 24 31 27 25 27 29 29 22 6 -3 -10 2 7 -5 -3 -0 11 18 7 10 6 7 7 -8 -20 -20 -20 -20 -20 -20 -20 -20 -20 -20 -20
21 26 32 32 30 24 23 30 22 17 14 5 6 -0 0 -1 -14 -20 -20 -15 -5 -16 -19 2 -4 -11 -20 -20 -20 -6 -4 -19 -20 -9 -3 0 1 -1 3 -4 -20 -20 -20
20 16 18 -1 12 24 30 22 17 17 17 11 4 4 2 2 7 1 0 -2 -17 -9 -17 -9 -20 -20 -17 -15 -9 -0 -4 -10 4 2 3 1 1 -20 -20 -20 -20 -20 -20
5 9 10 13 14 9 8 15 15 17 17 16 16 12 10 9 6 0 2 -6 -3 -1 1 0 -0 -1 -1 2 2 1 3 -11 -7 -9 -20 -14 -20 -20 -20 -20 -20 -20 -20
-2 -17 -9 -6 -18 -0 -6 -15 -3 6 8 7 4 -1 3 -1 -20 -20 -20 -20 -3 7 1 1 -1 0 -12 -4 -13 -15 -20 -20 -20 -19 -20 -20 -20 -20 -20 -20 -20 -20 -20
-2 -13 -3 -7 -4 -5 -19 -5 -3 -12 -20 -20 -20 -20 -20 -19 -20 -20 -20 -20 -20 -20 1 1 -4 -15 -19 -20 -20 -20 -20 -20 -20 -20 -20 -20 -20 -20 -20 -20 -20 -20 -20
4 -16 4 -3 -0 0 1 -2 3 1 0 -0 -2 -10 -5 -20 -20 -19 -20 -20 -20 -20 -20 -20 -20 -20 -20 -20 -20 -20 -20 -20 -20 -20 -20 -20 -20 -20 -20 -20 -20 -20 -20
-0 6 6 3 2 4 0 2 2 0 1 3 5 -7 -6 -20 -20 -20 -20 -19 -20 -20 -20 -20 -20 -20 -20 -20 -11 -20 -20 -20 -20 -20 -20 -20 -15 -20 -20 -20 -20 -20 -20
-4 -18 -2 7 7 6 6 4 4 3 0 -0 -4 -2 8 1 -2 -2 -4 -5 -14 -20 -20 -20 -20 -20 -20 -20 -18 -20 -20 -20 -20 -20 -15 -4 -2 -20 -20 -20 -20 -20 -20
7 4 6 -6 -4 2 5 4 5 4 2 -2 -0 -14 -20 -6 -5 -3 -4 -4 -4 -1 -1 -19 -3 -5 -20 -20 -19 -20 -20 -3 -20 -20 -20 -20 -20 -20 -20 -20 -20 -20 -20
3 4 4 4 1 4 4 4 6 5 -2 3 -8 -20 -20 -3 -20 -20 -0 1 1 -2 -2 -0 -15 -20 -20 -4 -10 -2 -20 -20 -20 -7 -20 -20 -20 -15 -5 -18 -20 -9 -20
5 5 4 4 6 7 5 4 3 1 -2 -1 -4 -2 -2 1 0 0 1 1 -0 -1 -5 -1 -4 -20 -1 -1 -3 -20 -20 -6 -11 -20 -14 -5 -11 -17 -1 -2 -9 -20 -13
4 6 2 1 -2 5 4 1 -20 -20 -17 0 1 1 1 2 3 -0 -0 2 1 -1 0 -2 -20 -20 -20 -7 -5 -20 -20 -20 -19 -5 -20 -20 -4 -8 -5 -6 -3 -5 -2
3 3 3 2 3 4 4 4 3 3 3 3 4 3 1 0 -0 2 1 -3 -5 -1 -17 -3 -20 -20 -20 -20 -20 -20 -20 -20 -20 -20 -20 -7 -2 -20 -4 -20 -4 -6 -1
-4 -2 0 1 3 3 3 3 3 2 2 2 1 2 1 -2 -0 1 -4 -20 -20 -20 -20 -20 -20 -20 -20 -20 -20 -20 -20 -20 -20 -20 -20 -6 -1 -1 -9 -15 -2 -2 -3

GFSGL_prec_radar_108.txt.gz
Reflectivity
-20 20 -13 -12 9 12 -17 -20 -20 -20 -20 -20 -20 -0 3 16 -20 -20 -12 -20 -9 10 -2 32 25 24 22 15 22 28 29 21 22 -1 27 26 14 -7 -1 7 -6 -10 -5
-18 28 -20 -20 9 16 15 -20 -20 -20 -20 -20 10 -20 -20 14 7 -14 -20 -19 -20 -20 -20 -20 -5 -16 4 12 -4 25 29 30 29 11 11 -0 7 -20 -20 -20 -20 -18 -12
-18 -20 -20 -16 11 3 6 11 -20 -20 -20 3 8 2 -19 -17 -13 5 -14 1 -20 -14 -20 -20 -20 -8 1 9 3 13 19 6 -6 2 -3 -14 -20 -15 1 4 -12 -20 -20
-2 4 -17 21 13 17 29 -8 -10 1 -7 -20 11 -9 -2 -11 -20 -18 3 -14 -20 1 11 -5 -20 -17 -20 -7 22 1 -18 4 8 4 7 7 -20 -20 -20 -14 -17 -20 -17
18 18 17 18 26 22 8 -2 25 9 11 14 12 8 10 12 12 1 9 7 10 11 14 3 -17 4 1 -20 -20 -7 13 2 2 -18 9 -20 -20 -20 -20 -18 -9 -14 -13
19 15 25 25 21 17 10 12 20 12 13 5 18 15 -8 -18 19 8 7 0 3 -8 -7 -17 0 -2 2 8 9 10 20 9 15 -16 -20 -20 -20 -20 -20 -20 -20 -20 4
25 22 25 27 15 21 18 20 18 13 7 12 13 -19 -20 -20 -9 14 9 7 20 17 7 15 21 8 12 -20 12 7 -2 1 -20 -20 -19 16 -3 1 0 -17 -6 8 16
19 23 25 24 23 22 22 10 5 20 15 15 5 1 -19 8 16 14 14 -16 3 13 14 -2 12 8 16 8 -17 -20 -20 -9 2 -1 5 22 25 19 2 15 22 27 24
33 30 24 23 23 23 29 17 12 24 24 -0 -15 -4 14 21 19 9 9 -20 -19 -19 -20 1 -2 11 19 12 5 7 21 10 22 25 34 17 17 20 27 8 10 15 2
36 28 25 34 32 29 28 42 29 22 23 24 29 29 19 25 20 3 6 -14 11 15 16 16 20 14 18 17 16 4 23 12 8 23 17 15 29 21 10 13 24 32 10
35 35 36 39 38 28 37 43 39 32 39 33 39 33 26 28 30 29 25 20 27 24 20 12 12 25 34 33 35 29 33 27 19 21 25 6 22 -11 -8 -20 -20 -20 -20
28 30 33 33 34 42 40 41 38 35 40 37 30 24 33 38 39 40 40 37 35 33 36 34 37 28 20 18 21 15 10 -2 -11 -20 -20 -20 -20 -20 -20 -20 -20 -20 -20
36 24 18 21 19 28 34 30 31 34 33 25 29 23 28 24 21 28 32 29 22 13 -3 8 9 -14 -20 2 4 -5 -4 -19 -20 -20 -20 -20 -20 -19 -20 -20 -20 -20 -20
3 16 21 23 19 18 21 22 33 26 23 10 14 -1 9 8 20 17 17 17 24 17 -18 -8 -2 -8 -20 -20 -20 -20 -20 -20 -20 -20 -20 -20 -19 -11 -20 -20 -20 -20 -20
-9 -6 9 4 9 13 16 19 22 20 20 20 22 22 20 19 18 19 18 17 20 18 14 12 11 2 -20 -20 -20 -20 -20 -20 -20 -20 -20 -17 -20 -20 -20 -20 -20 -20 -20
-19 -3 -15 3 -7 -10 4 6 13 13 13 13 14 17 19 18 17 14 14 14 13 12 5 -16 -17 -20 -20 -20 -20 -20 -20 -20 -20 -20 -20 -20 -20 -20 -20 -20 -20 -20 -20
-20 -4 -20 -20 -20 2 -20 -20 -8 9 7 5 -10 -0 7 6 11 10 2 -6 -11 -20 -20 -20 -20 -20 -20 -20 -20 -20 -20 -20 -20 -20 -20 -20 -20 -20 -20 -20 -20 -20 -20
5 -5 -4 2 -3 -1 -14 -0 0 -19 -16 -20 -11 -18 -20 -10 -3 -18 -12 -13 -20 -20 -20 -20 -20 -20 -20 -20 -20 -20 -20 -20 -20 -20 -20 -20 -20 -20 -20 -20 -20 -20 -20
-20 -5 9 6 3 2 -7 -10 -2 -19 -14 -8 -11 -7 -17 -20 -20 -20 -20 -20 -20 -20 -20 -20 -20 -20 -20 -20 -6 -20 -20 -20 -20 -20 -20 -20 -20 -20 -20 -20 -20 -20 -20
2 -20 -18 -0 -1 -2 -5 1 -1 -11 -20 -20 -20 -20 2 -20 -20 -20 -20 -20 -20 -20 -20 -20 -20 -20 -20 -20 -20 -20 -20 -20 -20 -20 -20 -20 -20 -20 -20 -20 -20 -20 -20
9 1 -7 5 6 -0 3 -0 3 -20 -20 -20 -20 -20 -20 -20 -20 -20 -20 -20 -20 -20 -20 -20 -20 -20 -20 -20 -20 -20 -20 -20 -20 -20 -20 -20 -20 -20 -20 -20 -20 -20 -20
8 10 7 8 -13 -10 2 3 -9 -2 1 -15 -20 -20 -20 -20 -20 -20 -20 -20 -20 -20 -20 -20 -20 -20 -20 -20 -20 -20 -20 -20 -20 -20 -20 -20 -20 -20 -20 -20 -20 -20 -20
-19 8 -16 -10 10 -9 -20 -20 -10 -4 -20 -20 -20 -20 -20 -20 -20 -20 -20 -20 -20 -20 -20 -20 -20 -20 -20 -20 -20 -20 -20 -20 -20 -20 -20 -20 -20 -20 -20 -20 -20 -20 -20
4 4 6 -13 -20 -16 -2 -1 -20 -20 -18 1 -14 -20 -16 1 -20 -20 -20 -19 -20 -20 -18 -20 -20 -20 -20 -20 -20 -20 -20 -20 -20 -20 -20 -20 -20 -20 -20 -20 -20 -20 -20
-20 -8 -20 4 1 8 6 -1 -18 -18 -20 -20 -4 -4 0 -6 -20 -20 -20 -20 -20 -11 -20 -20 -20 -20 -20 -20 -20 -20 -20 -20 -20 -20 -20 -20 -20 -20 -20 -20 -20 -20 -20
-16 -20 -9 -11 -20 -16 -3 1 -16 -20 -20 -3 -16 -20 -20 -20 -19 -20 -20 -20 -20 -20 -20 -20 -20 -20 -20 -20 -20 -20 -20 -20 -20 -20 -20 -20 -20 -20 -20 -20 -20 -20 -20

GFSGL_prec_radar_111.txt.gz
Reflectivity
-20 5 -8 -20 -20 23 28 1 10 -20 3 -20 -20 -9 8 -20 -20 -18 -20 -20 -20 -7 -20 -18 3 -8 13 26 28 25 -10 -20 -20 11 22 19 26 21 15 24 15 -19 -20
19 24 22 22 26 11 5 -4 -3 5 28 -20 -20 -20 -2 -20 2 -20 -5 -8 -20 -20 -20 -20 5 -5 25 25 19 21 21 24 8 10 28 21 26 28 17 9 10 9 7
-20 -0 25 27 26 14 4 -8 -4 11 5 -20 -20 -13 -6 -14 10 -20 -11 6 -14 -20 -20 7 -4 -17 3 21 1 5 25 17 26 31 28 29 20 6 21 13 -20 -20 -20
-7 6 22 25 29 31 28 -8 2 7 25 -18 -10 -3 14 8 12 19 -13 0 -16 -19 -20 -20 -19 -20 -20 -16 -8 23 16 24 23 22 19 -2 -4 10 17 3 -20 -20 7
20 2 15 16 25 28 4 -20 22 15 28 15 4 12 14 3 6 10 5 2 14 15 13 14 15 9 13 15 5 -12 2 10 19 -1 8 3 5 -6 10 -15 -20 -20 4
12 12 19 4 23 15 9 32 2 -4 16 -6 25 7 8 17 19 15 13 11 11 4 12 11 9 6 7 8 -20 13 15 9 -6 -20 -20 -20 -18 -20 -20 -20 -20 -12 3
18 17 17 12 28 33 18 12 27 14 8 -17 10 8 8 8 14 15 15 -9 -12 -12 2 2 -20 -20 -17 -20 -8 -1 10 3 -12 5 18 15 -18 -20 -14 -20 -20 -20 -18
26 24 7 19 16 27 29 35 18 12 -6 -9 -0 10 1 14 17 16 9 -9 -0 -10 -12 -5 -19 -11 -11 -15 -1 -7 -7 5 3 -15 -20 -12 -3 15 20 13 13 24 20
37 33 28 5 26 27 30 33 20 23 33 17 18 15 20 1 18 21 15 -18 4 11 17 15 17 17 24 23 8 22 16 -10 13 9 15 25 18 22 16 -0 14 6 13
34 27 20 20 27 36 32 42 29 34 39 33 35 32 25 18 24 22 20 21 3 0 16 12 18 10 16 12 3 -3 5 7 22 23 26 3 12 19 19 9 18 -1 21
22 29 17 32 33 33 31 19 37 35 30 36 28 34 25 37 29 32 30 27 28 12 3 -2 2 19 11 11 21 22 21 29 36 21 35 21 13 1 15 11 -20 -20 -20
1 10 18 18 17 33 29 35 39 37 39 37 36 31 32 28 36 37 38 35 26 21 20 21 26 34 37 36 33 29 31 35 29 14 27 3 9 6 -20 -20 -20 -20 -20
-15 -5 9 14 15 18 18 25 30 28 22 24 26 28 27 29 28 29 26 28 32 25 28 37 28 34 36 30 27 30 19 -1 -18 2 3 3 -7 -20 -20 -20 -20 -20 -20
-2 -20 -11 5 13 12 15 19 20 24 25 23 25 25 23 18 21 21 19 22 20 17 18 15 12 13 1 -14 13 16 -7 0 4 4 -11 -20 -20 -20 -20 -20 -20 -20 -20
-20 -14 -9 -20 -14 2 -1 3 10 13 18 21 23 24 25 24 24 26 24 19 18 14 15 17 15 4 3 -17 -4 8 12 15 12 7 -20 -20 -20 -20 -20 -20 -20 -20 -20
-20 -20 -18 -12 -20 -20 -14 -12 -0 4 7 11 15 16 19 22 21 19 17 12 14 14 14 15 16 19 18 17 17 13 12 8 4 -7 -20 -20 -20 -20 -20 -20 -20 -20 -20
-20 -20 -20 -20 -20 -16 -20 -20 -20 -20 -20 -9 -5 1 9 11 13 11 9 12 11 6 6 7 9 11 13 13 10 4 2 1 -6 -15 -20 -20 -20 -20 -20 -20 -20 -20 -20
-20 -16 -20 -20 -20 -20 -20 -4 -20 -20 -20 -20 -15 -19 -13 -17 -7 1 4 6 2 3 6 8 8 9 6 -7 -20 -18 -12 -18 -20 -20 -20 -20 -20 -20 -20 -20 -20 -20 -20
-20 -20 -20 -20 -20 -20 -20 -20 -20 -20 -20 -20 -20 -16 -20 -20 -20 -20 -20 -17 -16 -15 -10 -18 -15 -16 -8 -0 -10 -19 -20 -20 -20 -20 -20 -20 -20 -20 -20 -20 -20 -20 -20
-20 -20 -20 -20 -20 -20 -20 -20 -20 -20 -20 -20 -20 -20 -20 -20 -20 -20 -20 -20 -20 -20 -20 -20 -20 -20 -20 -20 -20 -20 -20 -20 -20 -20 -20 -20 -20 -20 -20 -20 -20 -20 -20
-19 -20 -20 -20 -20 -20 -20 -20 -20 -20 -20 -20 -20 -20 -20 -20 -20 -20 -20 -20 -20 -20 -20 -20 -20 -20 -20 -20 -20 -20 -20 -20 -20 -20 -20 -20 -20 -20 -20 -20 -20 -20 -20
-20 -20 -20 -19 -20 -20 -20 -20 -20 -20 -20 -20 -20 -20 -20 -20 -20 -20 -20 -20 -20 -20 -20 -20 -20 -20 -20 -20 -20 -20 -20 -20 -20 -20 -20 -20 -20 -20 -20 -20 -20 -20 -20
-20 -20 -20 -20 -20 -20 -20 -20 -20 -20 -20 -20 -20 -20 -20 -20 -20 -20 -20 -20 -20 -20 -20 -20 -20 -20 -20 -20 -20 -20 -20 -20 -20 -20 -20 -20 -20 -20 -20 -20 -20 -20 -20
-20 -20 -20 -20 -20 -20 -20 -20 -20 -20 -20 -20 -20 -20 -20 -20 -20 -20 -20 -20 -20 -20 -20 -20 -20 -20 -20 -20 -20 -20 -20 -20 -20 -20 -20 -20 -20 -20 -20 -20 -20 -20 -20
-20 -20 -20 -20 -20 -20 -20 -20 -20 -20 -20 -20 -20 -20 -20 -20 -20 -20 -20 -20 -20 -20 -20 -20 -20 -20 -20 -20 -20 -20 -20 -20 -20 -20 -20 -20 -20 -20 -20 -20 -20 -20 -20
-20 -20 -20 -20 -20 -20 -20 -20 -20 -20 -20 -20 -20 -20 -20 -20 -20 -20 -20 -20 -20 -20 -20 -20 -20 -20 -20 -20 -20 -20 -20 -20 -20 -20 -20 -20 -20 -20 -20 -20 -20 -20 -20

GFSGL_prec_radar_114.txt.gz
Reflectivity
-20 -20 -20 -20 -20 3 -10 12 -20 24 -0 -20 -20 -20 -20 -14 -19 9 13 -14 -14 -20 -20 -20 -18 -20 20 23 25 21 19 -20 -12 -20 -17 -5 4 6 18 18 15 18 16
-20 2 -7 21 17 21 20 27 -7 -10 -12 8 -20 -20 -20 -1 -2 -18 5 15 -3 14 -20 -17 -8 14 23 -4 -0 7 13 11 -5 15 17 3 22 25 30 23 17 14 16
-20 -20 5 14 7 20 27 25 26 16 29 5 -17 -15 -20 -12 -10 5 5 15 -2 -13 -19 12 -16 -17 18 26 20 32 30 22 26 26 19 21 21 30 29 20 25 18 6
-20 -20 -20 23 20 15 26 26 27 27 29 12 -4 -20 -12 7 4 -5 18 15 -17 12 6 -7 21 13 6 15 13 4 23 33 23 24 25 27 30 30 29 26 21 20 5
5 -20 -10 -20 -20 -3 24 15 -11 29 31 24 3 -20 -14 -17 2 16 14 15 10 8 -19 -20 -17 -13 16 -4 -20 -2 25 25 25 11 22 25 16 14 15 15 9 11 13
2 17 5 27 14 -9 16 24 22 30 24 -12 21 -19 18 -20 16 7 19 17 3 7 -20 14 -8 3 9 19 17 12 10 3 10 3 -3 5 1 -20 -20 3 -11 2 21
8 12 -2 1 9 -6 30 25 28 27 30 -9 1 23 -20 21 4 12 13 -5 19 13 17 10 4 -7 18 4 9 -4 -11 5 14 14 10 -6 -20 -20 -19 -20 -20 -20 -20
28 28 13 16 23 14 26 6 20 14 29 25 2 -20 -0 2 20 -7 -15 -15 5 8 7 10 13 12 3 -9 -20 -20 -20 -15 -11 -12 -20 -12 9 13 -11 -20 -20 -11 9
7 20 29 23 25 17 38 31 32 38 28 41 16 12 8 10 20 29 27 -20 -7 7 11 -17 -7 0 16 6 -13 -20 -20 -20 7 -5 13 20 14 -17 3 7 4 28 22
-7 12 22 32 39 38 36 27 42 34 31 37 35 18 35 12 21 17 22 17 9 -5 24 28 27 18 23 12 6 13 24 14 4 -13 -14 3 8 15 20 13 3 24 20
-20 -4 14 24 23 25 31 33 31 38 37 34 40 26 26 35 35 35 31 35 28 8 22 22 13 23 22 22 25 6 17 7 20 14 11 7 24 30 26 22 16 23 12
-20 -20 -19 -7 20 16 12 17 26 27 35 31 39 29 36 34 38 38 39 41 40 31 22 12 2 11 15 9 11 21 23 23 17 28 23 27 25 33 31 27 14 32 27
-20 -20 -20 -20 -20 -5 5 -18 4 17 23 23 28 25 29 27 22 27 34 31 34 30 34 29 31 29 30 15 15 19 26 27 32 34 32 35 26 25 8 12 -18 -20 -20
-19 -20 -20 -20 -20 -20 -20 -20 -17 -7 -5 6 13 17 19 21 21 23 20 15 19 20 20 24 25 24 27 23 19 25 26 24 18 18 7 -19 -20 -20 -20 -20 -19 -12 -8
-20 -12 -17 -20 -20 -20 -20 -20 -19 -10 -9 -5 4 5 10 17 18 19 19 20 22 21 20 16 15 19 21 22 17 13 13 10 -13 7 13 12 3 -2 3 5 5 2 -11
-20 -20 -20 -19 -20 -20 -20 -20 -3 -14 -10 0 -3 -4 2 8 10 11 12 12 16 18 18 18 19 23 24 23 21 16 7 2 -4 -2 -6 9 8 6 6 1 -2 2 -4
-20 -20 -20 -20 -20 -20 -20 -20 -20 -20 -20 -20 -20 -9 4 -2 -5 -0 3 5 11 13 13 12 14 12 12 13 15 15 14 14 14 15 15 14 10 6 -1 -12 -15 -11 -5
-20 -20 -20 -20 -20 -20 -20 -20 -20 -20 -20 -20 -17 -8 -20 -20 -20 -20 -20 -18 -16 -10 -5 3 8 10 9 8 7 8 10 10 11 11 11 10 3 -6 -11 -15 -17 -19 -20
-20 -20 -20 -20 -20 -20 -20 -20 -20 -20 -20 -20 -20 -20 -20 -20 -20 -20 -20 -20 -20 -20 -20 -19 -15 -6 -8 -5 -2 -3 -16 -20 -20 -20 -20 -20 -20 -20 -20 -20 -20 -20 -20
-20 -20 -20 -20 -20 -20 -20 -20 -20 -20 -20 -20 -20 -20 -20 -20 -20 -20 -20 -20 -20 -20 -20 -20 -20 -20 -20 -20 -20 -20 -20 -20 -20 -20 -20 -20 -20 -20 -20 -20 -20 -20 -20
-20 -20 -20 -20 -20 -20 -20 -20 -20 -20 -20 -20 -20 -20 -20 -20 -20 -20 -20 -20 -20 -20 -20 -20 -20 -20 -20 -20 -20 -20 -20 -20 -20 -20 -20 -20 -20 -20 -20 -20 -20 -20 -20
-20 -20 -20 -20 -20 -20 -20 -20 -20 -20 -20 -20 -20 -20 -20 -20 -20 -20 -20 -20 -20 -20 -20 -20 -20 -20 -20 -20 -20 -20 -20 -20 -20 -20 -20 -20 -20 -20 -20 -20 -20 -20 -20
-20 -20 -20 -20 -20 -20 -20 -20 -20 -20 -20 -20 -20 -20 -20 -20 -20 -20 -20 -20 -20 -20 -20 -20 -20 -20 -20 -20 -20 -20 -20 -20 -20 -20 -20 -20 -20 -20 -20 -20 -20 -20 -20
-20 -20 -20 -20 -20 -20 -20 -20 -20 -20 -20 -20 -20 -20 -20 -20 -20 -20 -20 -20 -20 -20 -20 -20 -20 -20 -20 -20 -20 -20 -20 -20 -20 -20 -20 -20 -20 -20 -20 -20 -20 -20 -20
-20 -20 -20 -20 -20 -20 -20 -20 -20 -20 -20 -20 -20 -20 -20 -20 -20 -20 -20 -20 -20 -20 -20 -20 -20 -20 -20 -20 -20 -20 -20 -20 -20 -20 -20 -20 -20 -20 -20 -20 -20 -20 -20
-20 -20 -20 -20 -20 -20 -20 -20 -20 -20 -20 -20 -20 -20 -20 -20 -20 -20 -20 -20 -20 -20 -20 -20 -20 -20 -20 -20 -20 -20 -20 -20 -20 -20 -20 -20 -20 -20 -20 -20 -20 -20 -20

GFSGL_prec_radar_117.txt.gz
Reflectivity
1 4 -20 -20 -20 -20 -20 22 -20 -20 4 26 -15 4 -2 -20 -20 -20 -20 -20 -16 10 1 11 7 -20 -17 -19 16 27 19 20 9 29 12 -13 9 -8 -20 -5 19 24 23
17 15 0 6 6 1 -2 19 15 18 23 25 23 28 -10 -20 -20 -20 -20 -20 -15 3 -19 -12 -20 -20 -20 -20 10 21 18 26 23 16 -20 -20 -20 -12 -20 10 24 23 24
-19 11 17 13 17 11 14 -11 -12 2 13 24 21 26 25 -14 -20 -18 -14 -20 -15 -20 13 -20 -19 -17 -1 13 4 -6 25 25 17 28 11 12 9 1 -10 18 25 19 7
-20 -20 -20 -2 24 14 11 15 -1 23 24 23 25 25 26 20 -4 -7 8 -7 8 -11 4 -6 3 -14 22 21 2 19 17 29 29 29 26 30 31 24 27 17 25 27 23
-19 -20 -20 -14 4 16 22 20 24 22 23 24 23 23 14 16 7 1 0 16 -13 5 12 -7 0 7 25 10 16 30 23 26 21 29 31 25 31 29 29 24 27 30 31
-6 -2 -14 -20 1 -20 -15 2 7 15 22 22 28 29 26 16 14 8 7 -20 -20 -9 15 16 3 16 -4 23 30 -13 8 22 -5 20 20 21 16 -8 19 22 18 19 27
-20 -20 -19 -9 -2 -13 -5 0 10 17 17 18 20 37 28 -11 6 4 8 -6 -9 -9 15 14 -0 -20 15 2 13 21 18 20 7 9 -10 5 -6 6 -13 16 6 -4 -11
-20 -20 -3 15 1 4 -4 12 -2 19 30 30 40 25 28 -8 18 7 6 1 -15 -20 -19 -9 25 13 27 5 3 5 17 -12 -7 -16 -20 -20 -20 -20 -0 -17 -20 1 -8
-20 -20 -20 -12 1 1 3 24 -2 28 29 40 43 33 36 8 17 7 13 8 19 2 -20 17 13 6 20 14 -1 13 -20 -20 11 13 5 6 8 9 -6 -16 -7 -19 -20
-20 -20 -20 -20 -14 -11 6 10 21 29 33 29 35 30 33 41 25 20 21 19 3 20 28 17 14 6 16 15 -4 -20 -19 -20 -20 -20 -13 7 7 8 14 -11 -20 -20 -3
-20 -20 -20 -20 -20 -17 -3 9 18 23 30 39 39 38 35 38 32 26 29 26 34 31 26 17 30 18 16 15 17 -7 9 11 13 7 25 14 -19 -13 -20 -1 12 28 30
-20 -20 -20 -20 -20 -20 -20 -6 6 19 18 22 26 32 27 36 38 36 30 34 33 20 27 31 35 37 30 32 29 31 32 26 17 4 -3 4 -2 16 16 23 31 23 32
-7 -20 -20 -20 -20 -20 -20 -20 -3 2 -8 4 -4 11 17 24 27 29 28 31 29 27 23 29 31 29 34 38 34 26 21 19 24 23 21 7 18 22 24 26 26 26 26
-20 -4 -20 -20 -20 -20 -20 -20 -20 -20 -2 11 -11 -14 -4 2 16 23 25 25 26 28 21 20 22 24 23 22 22 22 22 24 19 18 7 17 23 22 20 19 20 13 17
-20 -20 -4 -20 -20 -20 -20 -6 -19 -5 -3 -19 -20 -20 -20 -17 9 1 2 9 16 19 19 16 14 17 18 16 16 18 22 23 22 23 17 9 8 -5 -13 -17 -13 -3 -13
-20 -20 -20 -20 -20 -20 -20 -20 -19 -9 -10 -4 3 -20 -19 -7 -18 -14 -20 -12 -2 2 6 6 10 14 13 11 8 13 18 19 18 14 10 7 9 8 -4 6 11 13 9
-20 -20 -20 -20 -20 -20 -20 -20 -20 -20 -20 -20 -7 -11 -17 -20 -20 -20 -20 -20 -20 -17 -11 4 6 9 11 9 8 13 15 17 17 18 18 17 16 16 16 17 16 15 12
-20 -20 -20 -20 -20 -20 -20 -20 -20 -20 -20 -20 -20 -20 -5 -20 -20 -20 -20 -20 -20 -20 -20 -20 -20 -20 -7 3 5 7 7 8 6 5 6 8 11 12 9 5 -1 -5 -1
-20 -20 -20 -20 -20 -20 -20 -20 -20 -20 -20 -20 -20 -20 -20 -20 -20 -20 -20 -20 -20 -20 -20 -20 -20 -20 -20 -20 -20 -20 -20 -15 -9 -3 -1 -0 3 6 3 -4 -10 -13 -14
-20 -20 -20 -20 -20 -20 -20 -20 -20 -20 -20 -20 -20 -20 -20 -20 -20 -20 -20 -20 -20 -20 -20 -20 -20 -20 -20 -20 -20 -20 -20 -20 -20 -20 -20 -20 -20 -20 -20 -20 -20 -20 -20
-20 -20 -20 -20 -20 -20 -20 -20 -20 -20 -20 -20 -20 -20 -20 -20 -20 -20 -20 -20 -20 -20 -20 -20 -20 -20 -20 -20 -20 -20 -20 -20 -20 -20 -20 -20 -20 -20 -20 -20 -20 -20 -20
-20 -20 -20 -20 -20 -20 -20 -20 -20 -20 -20 -20 -20 -20 -20 -20 -20 -20 -20 -20 -20 -20 -20 -20 -20 -20 -20 -20 -20 -20 -20 -20 -20 -20 -20 -20 -20 -20 -20 -20 -20 -20 -20
-20 -20 -20 -20 -20 -20 -20 -20 -20 -20 -20 -20 -20 -20 -20 -20 -20 -20 -20 -20 -20 -20 -20 -20 -20 -20 -20 -20 -20 -20 -20 -20 -20 -20 -20 -20 -20 -20 -20 -20 -20 -20 -20
-20 -20 -20 -20 -20 -20 -20 -20 -20 -20 -20 -20 -20 -20 -20 -20 -20 -20 -20 -20 -20 -20 -20 -20 -20 -20 -20 -20 -20 -20 -20 -20 -20 -20 -20 -20 -20 -20 -20 -20 -20 -20 -20
-20 -20 -20 -20 -20 -20 -20 -20 -20 -20 -20 -20 -20 -20 -20 -20 -20 -20 -20 -20 -20 -20 -20 -20 -20 -20 -20 -20 -20 -20 -20 -20 -20 -20 -20 -20 -20 -20 -20 -20 -20 -20 -20
-20 -20 -20 -20 -20 -20 -20 -20 -20 -20 -20 -20 -20 -20 -20 -20 -20 -20 -20 -20 -20 -20 -20 -20 -20 -20 -20 -20 -20 -20 -20 -20 -20 -20 -20 -20 -20 -20 -20 -20 -20 -20 -20

GFSGL_prec_radar_120.txt.gz
Reflectivity
2 -17 -20 -20 -20 -20 -4 -19 11 -13 18 -13 25 26 -9 23 -15 -13 -18 16 14 4 -20 -20 -17 -20 -20 -20 -17 -20 8 20 19 18 25 27 30 16 7 17 -5 -20 -20
-15 -20 -20 -17 2 5 13 15 12 -9 -20 21 23 21 13 -20 -20 -3 7 -5 7 -3 -20 -20 -4 -15 -20 -20 -20 -20 14 18 21 26 27 28 15 7 -18 -5 22 -18 10
8 -15 -20 -11 3 8 12 11 14 -1 -0 -14 20 -20 -17 -20 -20 11 -15 -18 25 -7 -20 -20 -20 -17 -20 -20 -20 -20 -10 19 23 23 30 21 12 -15 -9 -8 -19 -17 10
-20 -20 -10 -6 1 -7 12 13 15 10 13 -11 19 16 15 32 -20 10 -11 15 -10 -20 -20 -20 -20 -20 -15 -20 -20 -2 11 17 13 32 25 29 22 16 8 2 9 21 25
-20 -20 2 -19 -20 5 21 4 14 20 13 4 24 13 8 6 20 26 18 3 -3 -6 -20 -20 -20 3 14 4 -14 10 21 5 23 23 30 30 32 28 24 23 28 28 28
-20 -20 -20 -20 -20 -20 -2 -20 -20 18 12 19 20 40 32 24 27 20 6 8 7 11 10 11 3 7 -14 10 13 9 6 22 11 34 19 21 28 31 33 36 33 31 29
-20 -20 -20 -20 -1 -18 -20 -20 -20 -20 -17 13 11 9 17 24 27 41 37 26 14 7 12 13 12 -0 10 -1 12 12 25 27 -5 -3 2 23 19 21 12 20 25 27 8
-20 -20 -20 -20 -14 -1 -18 -20 -20 -20 -17 -20 3 29 4 27 33 37 25 31 23 -3 -10 13 9 -20 -9 -20 -20 10 5 -8 1 22 -4 -19 13 -10 4 -1 0 11 10
-20 -20 -20 -20 -20 -20 -20 -8 -18 -4 14 4 12 14 25 35 27 28 37 22 18 9 10 25 22 21 16 15 -1 -0 22 -11 27 14 23 17 15 9 -2 -19 7 -4 -3
-20 -20 -20 -20 -20 -20 -20 -20 -20 -20 -18 -3 -19 17 30 40 42 35 35 26 38 16 13 25 20 15 23 20 -2 -6 12 -5 -11 7 3 0 6 -1 13 9 7 12 -10
-20 -20 -20 -20 -20 -20 -20 -20 -20 -20 -20 -20 -19 -2 1 18 23 40 40 34 41 28 31 25 16 25 27 28 30 12 18 16 10 9 -10 -13 -20 -20 -20 -14 -5 -3 -16
-20 -20 -20 -20 -20 -20 -20 -20 -20 -20 -20 -20 -20 -10 12 20 24 28 23 33 33 38 32 25 23 32 32 32 32 34 26 23 20 12 17 1 -3 -6 11 17 9 -4 5
-20 -20 -20 -20 -20 -20 -20 -20 -20 -20 -20 -20 -20 -20 -6 7 19 22 23 24 29 31 31 22 22 26 19 22 30 26 35 35 29 23 27 26 23 17 26 12 7 -15 -1
-20 -13 -20 -20 -20 -20 -20 -20 -20 -20 -20 -20 -20 -20 -20 -20 -11 7 13 10 8 15 22 24 22 21 19 20 21 22 24 25 28 27 25 26 28 29 23 15 13 10 13
-20 -20 -20 -20 -20 -20 -20 -20 -20 -13 -2 -9 -20 -20 -20 -17 -6 -20 -20 -20 -5 -9 3 12 18 20 21 23 22 19 23 26 26 24 22 24 25 22 13 14 9 -2 5
-20 -20 -20 -20 -20 -20 -20 -20 -20 -20 -20 -1 2 -20 -20 -4 -15 -15 -18 -20 -20 -20 -20 -20 -17 -3 13 16 16 17 18 18 18 17 18 19 19 18 15 10 10 13 16
-20 -20 -20 -20 -20 -20 -20 -20 -20 -20 -20 -20 -5 -11 -2 -3 -2 -14 -20 -20 -20 -20 -20 -20 -20 -19 -5 -7 -7 3 9 12 14 14 14 13 12 9 -2 6 12 14 15
-20 -20 -20 -20 -20 -20 -20 -20 -20 -20 -20 -20 -20 -20 -3 -4 -20 -20 -20 -20 -20 -20 -20 -20 -20 -20 -20 -20 -20 -18 -14 -11 -10 -5 -0 3 4 1 -3 4 6 4 3
-20 -20 -20 -20 -20 -20 -20 -20 -20 -20 -20 -20 -20 -20 -20 -20 -20 -20 -20 -20 -20 -20 -20 -20 -20 -20 -20 -20 -20 -20 -20 -20 -20 -20 -18 -18 -17 -14 -7 -4 -2 -3 -6
-20 -20 -20 -20 -20 -20 -20 -20 -20 -20 -20 -20 -20 -20 -20 -20 -20 -20 -20 -20 -20 -20 -20 -20 -20 -20 -20 -20 -20 -20 -20 -20 -20 -20 -20 -20 -20 -20 -20 -20 -20 -20 -20
-20 -20 -20 -20 -20 -20 -20 -20 -20 -20 -20 -20 -20 -20 -20 -20 -20 -20 -20 -20 -20 -20 -20 -20 -20 -20 -20 -20 -20 -20 -20 -20 -20 -20 -20 -20 -20 -20 -20 -20 -20 -20 -20
-20 -20 -20 -20 -20 -20 -20 -20 -20 -20 -20 -20 -20 -20 -20 -20 -20 -20 -20 -20 -20 -20 -20 -20 -20 -20 -20 -20 -20 -20 -20 -20 -20 -20 -20 -20 -20 -20 -20 -20 -20 -20 -20
-20 -20 -20 -20 -20 -20 -20 -20 -20 -20 -20 -20 -20 -20 -20 -20 -20 -20 -20 -20 -20 -20 -20 -20 -20 -20 -20 -20 -20 -20 -20 -20 -20 -20 -20 -20 -20 -20 -20 -20 -20 -20 -20
-20 -20 -20 -20 -20 -20 -20 -20 -20 -20 -20 -20 -20 -20 -20 -20 -20 -20 -20 -20 -20 -20 -20 -20 -20 -20 -20 -20 -20 -20 -20 -20 -20 -20 -20 -20 -20 -20 -20 -20 -20 -20 -20
-20 -20 -20 -20 -20 -20 -20 -20 -20 -20 -20 -20 -20 -20 -20 -20 -20 -20 -20 -20 -20 -20 -20 -20 -20 -20 -20 -20 -20 -20 -20 -20 -20 -20 -20 -20 -20 -20 -20 -20 -20 -20 -20
-20 -20 -20 -20 -20 -20 -20 -20 -20 -20 -20 -20 -20 -20 -20 -20 -20 -20 -20 -20 -20 -20 -20 -20 -20 -20 -20 -20 -20 -20 -20 -20 -20 -20 -20 -20 -20 -20 -20 -20 -20 -20 -20

GFSGL_prec_radar_123.txt.gz
Reflectivity
8 26 15 7 14 5 -2 -16 3 1 20 9 7 2 -15 -3 -20 -20 13 8 -11 -19 -20 -14 6 6 -16 -19 -12 -6 6 5 -8 -20 -6 23 25 32 30 24 24 23 19
25 20 21 13 -2 10 -20 -16 1 -20 -20 -16 11 17 -1 -0 -20 -19 20 12 -19 -3 15 -10 -20 9 -20 -20 -20 -4 6 5 -20 1 7 22 30 23 28 30 30 23 16
-19 -20 -20 -20 -20 -19 -11 -11 7 -6 -1 7 -17 -4 23 13 21 12 16 -6 1 -6 -12 14 7 10 -16 -10 -5 5 -0 -20 -20 -5 -7 23 25 29 24 23 18 -20 -20
-20 -20 -20 -20 -20 -20 -18 -4 1 4 10 16 13 19 -4 -6 -4 8 16 9 -18 28 -0 -4 -12 1 -20 -4 -5 -3 1 -20 -20 -0 -1 27 25 25 17 22 15 -1 -20
-20 -20 -20 -20 -20 -20 -20 -1 -6 6 15 18 16 8 19 17 14 18 15 17 10 26 4 19 5 -8 -20 -20 -19 -20 -20 -20 -20 -14 16 21 30 28 16 13 21 22 13
-20 -20 -20 -3 -20 -20 -20 -13 -20 -13 -5 13 -0 15 14 22 24 -5 9 8 3 0 9 17 8 -7 -20 -1 -17 -4 -19 -20 -20 -20 -20 -7 11 22 27 28 28 23 21
-20 -20 -20 -20 -20 -12 -6 -14 -6 -20 -15 -3 20 8 19 39 29 22 32 20 24 28 35 33 12 4 -10 1 4 -20 -15 5 16 -11 -20 -19 -20 7 6 26 29 31 31
-20 -20 -20 -20 -20 -20 -20 -20 -18 -17 -18 -20 -13 -20 -20 -6 3 12 34 11 32 40 45 35 19 20 6 11 -19 -6 -7 1 -5 10 -1 -5 -19 -20 -14 -3 26 31 26
-20 -20 -20 -20 -20 -20 -20 -20 -20 -19 -20 -20 -18 -15 -20 -15 0 9 28 11 25 38 34 35 8 10 21 18 4 -1 -10 -5 13 11 2 18 18 20 9 -17 -5 19 14
-20 -20 -20 -20 -20 -20 -20 -20 -20 -20 -20 -20 -20 -20 -20 -20 6 -9 22 36 37 34 37 40 36 29 23 20 3 14 -20 -12 3 -6 -0 13 20 11 29 21 10 16 10
-2 -20 -20 -20 -13 -20 -20 -20 -20 -13 -20 -20 -20 -20 -20 -20 -20 -20 -17 10 24 29 38 35 28 30 28 26 24 31 11 28 31 4 5 11 -6 -7 14 3 -0 10 -7
-20 -20 -20 -20 -11 -20 -16 -9 -20 -20 -20 -20 -20 -20 -17 -20 -20 -20 -20 -17 9 19 27 31 33 28 33 24 19 26 25 29 28 29 35 33 12 10 6 12 7 15 16
-20 -20 -20 -20 -20 -19 -20 -20 -17 -20 -20 -5 -20 -14 -20 -20 -20 -20 -20 -0 5 9 15 20 25 24 25 30 32 34 30 32 24 23 23 27 20 11 14 13 10 12 21
-20 -20 -20 -20 -20 -20 -20 -2 -16 3 -17 -20 -17 -7 -5 3 -4 -20 -17 -0 -11 10 14 20 22 21 25 27 26 25 24 24 22 20 20 20 19 21 21 24 25 25 22
-20 -20 -6 -20 -20 -20 -20 -6 -4 -5 2 2 4 1 5 4 4 -8 -7 1 -16 -19 0 13 16 17 15 16 20 22 24 24 25 25 23 22 23 23 25 24 27 27 26
-20 -20 -4 -4 -20 -20 -20 -20 -20 -20 -14 -14 -12 -4 2 -6 -16 -20 -20 -20 -20 -20 -20 -20 -15 4 7 2 1 9 15 17 17 20 22 20 20 19 19 18 18 18 20
-20 -20 -20 -20 -20 -20 -20 -20 -20 -20 -20 -20 -20 -4 -8 -0 -20 -20 -20 -20 -20 -20 -20 -20 -20 -20 -19 -19 -18 -18 -7 7 14 16 14 16 17 16 15 14 14 13 11
-20 -20 -20 -20 -20 -20 -20 -20 -20 -20 -20 -20 -20 -20 -11 -7 -20 -20 -20 -20 -20 -20 -20 -20 -20 -20 -20 -20 -19 -16 -16 -19 -12 4 11 12 12 10 7 6 6 7 6
-20 -20 -20 -20 -20 -20 -20 -20 -20 -20 -20 -20 -20 -20 -20 -20 -20 -20 -20 -20 -20 -20 -20 -20 -20 -20 -20 -20 -20 -20 -20 -20 -20 -20 -20 -20 -18 -12 -13 -18 -19 -15 -11
-20 -20 -20 -20 -20 -20 -20 -20 -20 -20 -20 -20 -20 -20 -20 -20 -20 -20 -20 -19 -20 -20 -20 -20 -20 -20 -20 -20 -20 -20 -20 -20 -20 -20 -20 -20 -20 -20 -20 -20 -20 -20 -20
-20 -20 -20 -20 -20 -20 1 1 -4 -20 -20 -20 -20 -20 -20 -20 -20 -20 -20 -3 -19 -20 -20 -20 -20 -20 -20 -20 -20 -20 -20 -20 -20 -20 -20 -20 -20 -20 -20 -20 -20 -20 -20
-20 -20 -20 -20 -20 -20 -20 -20 -20 -20 -20 -20 -20 -20 -20 -20 -20 -20 -20 -20 -5 -16 -20 -20 -20 -20 -20 -20 -20 -20 -20 -20 -20 -20 -20 -20 -20 -20 -20 -20 -20 -20 -20
-20 -20 -20 -20 -20 -20 -20 -20 -16 3 -5 -20 -20 -20 -20 -20 -20 -20 -20 -20 -20 -20 -20 -20 -20 -20 -20 -20 -15 -20 -20 -20 -20 -20 -20 -20 -20 -20 -20 -20 -20 -20 -20
-20 -20 -20 -20 -20 -20 -3 -2 -20 -20 -20 -17 -20 -20 -20 -20 -20 -20 -20 -20 -20 -20 -20 -20 -20 -20 -20 -20 -20 -20 -20 -20 -20 -20 -20 -20 -20 -20 -20 -20 -20 -20 -20
-20 -20 -20 -20 -20 -20 -20 -20 1 2 3 2 2 3 3 3 2 -19 -20 -20 -20 -20 -20 -20 -20 -20 -20 -20 -20 -20 -20 -20 -20 -20 -20 -20 -20 -20 -20 -20 -20 -20 -20
-20 -20 -20 -20 -20 -20 -20 -20 -20 -6 1 2 -20 -20 -20 -8 -7 -20 -20 -20 -20 -20 -20 -20 -20 -20 -20 -20 -20 -20 -20 -20 -20 -20 -20 -20 -20 -20 -20 -20 -20 -20 -20

GFSGL_prec_radar_126.txt.gz
Reflectivity
16 24 2 -8 -20 -20 -20 -20 -20 -6 26 10 12 15 16 11 20 9 5 -9 2 1 26 11 20 -9 13 6 -0 -7 -20 -19 15 16 -13 -15 8 -20 -7 16 30 22 19
-20 -19 -19 0 10 -18 -16 -19 -7 6 11 -2 4 16 13 4 21 5 0 -15 -12 9 24 25 6 13 6 6 -12 -6 -16 -15 14 2 1 -19 -20 -20 -8 14 24 24 28
-11 13 15 23 31 12 15 11 9 7 5 9 10 -0 18 22 19 22 8 14 -20 7 21 -7 10 19 12 -11 -20 -10 3 -17 15 15 -14 -20 -8 -14 14 24 15 20 27
34 30 13 3 14 -4 4 10 8 11 14 16 14 19 15 18 12 12 17 11 8 21 20 25 -19 2 21 -17 -0 -6 2 1 9 14 -2 -20 -11 -16 -5 5 2 6 20
24 10 -16 -20 -20 -20 -12 -14 -13 7 -7 12 16 21 22 11 8 5 14 2 -2 -12 -3 16 20 18 27 -12 18 -6 5 11 6 4 -20 -20 -9 4 3 3 22 15 28
-20 -20 -20 -20 -20 -20 -19 -17 -17 -20 15 -17 11 8 19 9 22 8 -4 -20 -20 10 -17 -12 23 21 14 25 20 5 -11 6 4 -20 -20 -10 -15 8 6 9 17 28 23
-20 -19 -20 -20 -20 -20 -20 -20 -20 -18 10 -12 -20 -18 5 11 11 19 17 21 13 13 21 13 12 16 20 26 36 17 -17 -20 -19 -15 2 -6 -14 -20 -20 7 27 19 26
-9 -4 -3 -20 -20 -20 -20 -11 -20 -17 -9 -12 -11 -20 -20 -20 -2 17 24 6 30 36 12 26 13 24 27 34 44 9 16 -15 -13 -14 -9 -10 2 16 -14 -17 -17 18 22
-12 -19 -9 -2 -9 -15 -8 -17 -5 -4 -5 -20 -4 -20 -20 -20 -20 -20 -20 -18 2 25 13 26 29 27 30 38 38 29 21 12 14 17 20 29 15 14 6 -3 -14 6 21
2 4 -0 -3 2 2 3 4 0 0 4 0 6 4 -16 3 -20 -20 -20 -20 -7 8 19 22 22 33 38 30 13 27 20 19 -17 -20 6 20 10 10 21 -7 -8 2 -16
-7 -1 -3 -1 4 4 1 5 3 5 2 2 4 4 2 -5 -11 -10 -20 -20 -20 -2 7 21 27 30 32 32 36 32 27 22 36 14 -12 -8 -3 10 1 10 -3 -6 0
-20 -20 -16 -4 -2 1 -1 2 2 3 2 2 1 3 5 3 -11 -15 -14 -20 -13 4 -11 2 9 18 31 37 35 31 34 33 8 23 27 16 31 31 29 27 6 4 -7
-20 -20 -20 -20 -19 -5 -4 0 -20 2 0 -5 -6 -1 -1 5 6 -20 -20 -12 -20 3 5 0 -20 -19 1 15 23 24 30 35 32 27 29 28 35 26 19 25 32 22 25
-20 -20 -20 -20 -20 -20 -20 -20 -7 3 1 -4 -3 0 4 4 5 4 4 3 -16 -4 -1 4 -20 -9 -20 -6 6 17 22 24 28 28 27 27 22 26 24 14 24 31 29
-20 -20 -20 -20 -20 -20 -20 -20 -12 -0 4 1 4 5 5 2 8 -3 -5 -2 -11 -14 -3 2 1 -4 -20 -1 -2 2 13 15 17 24 29 30 27 25 25 22 22 21 22
-20 -20 -20 -20 -20 -20 -20 -20 -20 -20 -18 -9 -13 4 3 -0 -5 -18 -20 -20 -20 -20 -7 -1 0 1 1 2 -2 2 6 11 15 20 23 24 24 24 24 23 23 23 23
-20 -20 -20 -20 -1 -20 -20 -20 -8 -12 -20 -20 -20 -20 -5 -1 -5 -20 -20 -20 -20 -20 -5 -2 1 0 -0 -2 -0 1 1 11 13 14 18 20 22 22 21 19 19 19 19
-7 -20 -17 -3 -2 -0 -1 -2 -2 -2 -5 -20 -20 -20 -20 -20 -20 -20 -20 -20 -20 -20 -20 -2 -1 -3 -20 -20 -16 -16 -2 2 4 8 12 15 17 17 17 16 15 16 17
-20 -20 -20 -5 -3 1 0 0 -0 -0 -4 -11 -20 -20 -20 -20 -20 -20 -20 -0 -1 -2 -12 -10 -2 -2 -1 -3 3 4 3 1 -1 -2 -2 2 6 9 10 8 10 12 14
-20 -20 -20 -6 -3 -2 -0 0 -1 -1 -1 1 3 -2 -20 -20 -20 -20 -15 1 1 -0 -1 -5 -1 -1 2 2 3 4 3 2 1 -3 1 2 1 -4 -20 -19 -19 -16 -13
-20 -20 -20 -20 -4 -2 0 1 2 3 3 3 4 -9 -20 0 1 -1 -19 0 0 2 4 0 -20 -20 -2 -3 -1 4 3 6 2 2 1 1 2 -2 -20 -20 -20 -20 -20
-20 -20 -20 -20 -20 -2 -0 1 3 4 3 3 4 2 -14 4 3 2 1 3 4 3 1 2 1 -20 -20 -20 -2 3 3 3 3 2 4 0 0 -2 -20 -20 -20 -20 -20
-20 -20 -20 -20 -11 -20 -8 1 3 3 3 4 4 4 -4 -9 -0 4 6 5 4 4 3 1 -0 -13 -20 -10 -16 -20 -4 1 3 1 2 2 1 2 1 -2 -20 -20 -20
-20 -3 -15 -18 -1 -6 2 3 4 -1 3 5 5 -18 -17 -14 -2 -2 -16 5 4 5 4 3 1 -20 -20 -20 -20 -20 -20 -4 -0 1 -0 2 0 -5 -1 -5 -16 -20 -20
0 -0 -1 1 2 4 4 4 5 5 5 4 5 5 2 2 -10 -5 -10 4 3 4 3 2 -0 -1 -18 -20 -20 -20 -20 -20 -20 -20 0 1 -0 -5 -4 -3 -2 -4 -20
1 0 2 3 3 3 4 5 5 5 4 5 -0 -20 6 5 -4 5 -3 5 1 3 2 3 3 -1 -14 -5 -20 -20 -20 -20 -20 -20 -14 -0 -2 -2 -3 -5 -20 -3 -20